Time,TemperatureF,DewpointF,PressureIn,WindDirection,WindDirectionDegrees,WindSpeedMPH,WindSpeedGustMPH,Humidity,HourlyPrecipIn,Conditions,Clouds,dailyrainin,SoftwareType,DateUTC
2013-07-28 00:00:00,73.0,73.0,17.72,WNW,298,0.0,0.0,100,0.00,,SKC,0.00,VWS V13.01,2013-07-28 05:00:00,
2013-07-28 00:01:00,73.0,73.0,17.72,WNW,298,0.0,0.0,100,0.00,,SKC,0.00,VWS V13.01,2013-07-28 05:01:00,
2013-07-28 00:02:00,72.8,72.8,17.72,WNW,298,0.0,0.0,100,0.00,,SKC,0.00,VWS V13.01,2013-07-28 05:02:00,
2013-07-28 00:04:00,72.8,72.8,17.72,WNW,298,0.0,0.0,100,0.00,,SKC,0.00,VWS V13.01,2013-07-28 05:04:00,
2013-07-28 00:05:00,72.8,72.8,17.72,WNW,298,0.0,0.0,100,0.00,,SKC,0.00,VWS V13.01,2013-07-28 05:05:00,
2013-07-28 00:06:00,72.8,72.8,17.72,WNW,298,0.0,0.0,100,0.00,,SKC,0.00,VWS V13.01,2013-07-28 05:06:00,
2013-07-28 00:07:00,72.8,72.8,17.72,WNW,298,0.0,0.0,100,0.00,,SKC,0.00,VWS V13.01,2013-07-28 05:07:00,
2013-07-28 00:08:00,72.8,72.8,17.72,WNW,298,0.0,0.0,100,0.00,,SKC,0.00,VWS V13.01,2013-07-28 05:08:00,
2013-07-28 00:09:00,72.8,72.8,17.72,WNW,298,0.0,0.0,100,0.00,,SKC,0.00,VWS V13.01,2013-07-28 05:09:00,
2013-07-28 00:10:00,72.8,72.8,17.72,WNW,298,0.0,0.0,100,0.00,,SKC,0.00,VWS V13.01,2013-07-28 05:10:00,
2013-07-28 00:11:00,72.6,72.6,17.72,WNW,298,0.0,0.0,100,0.00,,SKC,0.00,VWS V13.01,2013-07-28 05:11:00,
2013-07-28 00:12:00,72.6,72.6,17.72,WNW,292,0.0,0.0,100,0.00,,SKC,0.00,VWS V13.01,2013-07-28 05:12:00,
2013-07-28 00:13:00,72.6,72.6,17.72,WNW,291,0.0,0.0,100,0.00,,SKC,0.00,VWS V13.01,2013-07-28 05:13:00,
2013-07-28 00:14:00,72.6,72.6,17.72,NW,323,0.0,0.0,100,0.00,,SKC,0.00,VWS V13.01,2013-07-28 05:14:00,
2013-07-28 00:15:00,72.6,72.6,17.72,WNW,287,0.0,2.7,100,0.00,,SKC,0.00,VWS V13.01,2013-07-28 05:15:00,
2013-07-28 00:16:00,72.6,72.6,17.72,North,349,0.0,0.0,100,0.00,,SKC,0.00,VWS V13.01,2013-07-28 05:16:00,
2013-07-28 00:17:00,72.6,72.6,17.72,NW,315,0.0,3.1,100,0.00,,SKC,0.00,VWS V13.01,2013-07-28 05:17:00,
2013-07-28 00:18:00,72.6,72.6,17.72,NW,315,0.0,0.0,100,0.00,,SKC,0.00,VWS V13.01,2013-07-28 05:18:00,
2013-07-28 00:19:00,72.6,72.6,17.72,NW,313,3.1,3.1,100,0.00,,SKC,0.00,VWS V13.01,2013-07-28 05:19:00,
2013-07-28 00:20:00,72.6,72.6,17.72,NNW,342,0.0,3.1,100,0.00,,SKC,0.00,VWS V13.01,2013-07-28 05:20:00,
2013-07-28 00:21:00,72.4,72.4,17.72,NNW,342,0.0,0.0,100,0.00,,SKC,0.00,VWS V13.01,2013-07-28 05:21:00,
2013-07-28 00:22:00,72.4,72.4,17.72,NNW,342,0.0,0.0,100,0.00,,SKC,0.00,VWS V13.01,2013-07-28 05:22:00,
2013-07-28 00:23:00,72.4,72.4,17.72,NNW,342,0.0,0.0,100,0.00,,SKC,0.00,VWS V13.01,2013-07-28 05:23:00,
2013-07-28 00:24:00,72.4,72.4,17.72,NNW,342,0.0,0.0,100,0.00,,SKC,0.00,VWS V13.01,2013-07-28 05:24:00,
2013-07-28 00:25:00,72.4,72.4,17.72,NNW,342,0.0,0.0,100,0.00,,SKC,0.00,VWS V13.01,2013-07-28 05:25:00,
2013-07-28 00:26:00,72.4,72.4,17.72,NNW,342,0.0,0.0,100,0.00,,SKC,0.00,VWS V13.01,2013-07-28 05:26:00,
2013-07-28 00:27:00,72.4,72.4,17.72,NNW,342,0.0,0.0,100,0.00,,SKC,0.00,VWS V13.01,2013-07-28 05:27:00,
2013-07-28 00:28:00,72.4,72.4,17.72,NNW,342,0.0,0.0,100,0.00,,SKC,0.00,VWS V13.01,2013-07-28 05:28:00,
2013-07-28 00:29:00,72.3,72.3,17.72,NNW,327,3.1,3.1,100,0.00,,SKC,0.00,VWS V13.01,2013-07-28 05:29:00,
2013-07-28 00:30:00,72.3,72.3,17.72,NNW,327,0.0,3.1,100,0.00,,SKC,0.00,VWS V13.01,2013-07-28 05:30:00,
2013-07-28 00:31:00,72.3,72.3,17.72,North,353,0.0,0.0,100,0.00,,SKC,0.00,VWS V13.01,2013-07-28 05:31:00,
2013-07-28 00:32:00,72.3,72.3,17.72,NNW,346,2.2,2.7,100,0.00,,SKC,0.00,VWS V13.01,2013-07-28 05:32:00,
2013-07-28 00:34:00,72.3,72.3,17.72,NNW,348,2.2,3.6,100,0.00,,SKC,0.00,VWS V13.01,2013-07-28 05:34:00,
2013-07-28 00:35:00,72.3,72.3,17.72,NNW,348,0.0,2.2,100,0.00,,SKC,0.00,VWS V13.01,2013-07-28 05:35:00,
2013-07-28 00:36:00,72.1,72.1,17.72,NNW,348,0.0,0.0,100,0.00,,SKC,0.00,VWS V13.01,2013-07-28 05:36:00,
2013-07-28 00:37:00,72.1,72.1,17.72,NNW,348,0.0,0.0,100,0.00,,SKC,0.00,VWS V13.01,2013-07-28 05:37:00,
2013-07-28 00:38:00,72.1,72.1,17.72,NNW,334,3.6,3.6,100,0.00,,SKC,0.00,VWS V13.01,2013-07-28 05:38:00,
2013-07-28 00:39:00,72.1,72.1,17.72,NNW,334,0.0,3.6,100,0.00,,SKC,0.00,VWS V13.01,2013-07-28 05:39:00,
2013-07-28 00:40:00,72.1,72.1,17.72,NNW,334,0.0,0.0,100,0.00,,SKC,0.00,VWS V13.01,2013-07-28 05:40:00,
2013-07-28 00:41:00,72.1,72.1,17.72,NNW,334,0.0,0.0,100,0.00,,SKC,0.00,VWS V13.01,2013-07-28 05:41:00,
2013-07-28 00:42:00,72.1,72.1,17.72,NNW,334,0.0,0.0,100,0.00,,SKC,0.00,VWS V13.01,2013-07-28 05:42:00,
2013-07-28 00:43:00,72.1,72.1,17.72,NNW,334,0.0,0.0,100,0.00,,SKC,0.00,VWS V13.01,2013-07-28 05:43:00,
2013-07-28 00:44:00,72.1,72.1,17.72,NNW,334,0.0,0.0,100,0.00,,SKC,0.00,VWS V13.01,2013-07-28 05:44:00,
2013-07-28 00:45:00,72.1,72.1,17.72,NNW,334,0.0,0.0,100,0.00,,SKC,0.00,VWS V13.01,2013-07-28 05:45:00,
2013-07-28 00:46:00,72.1,72.1,17.72,NNW,334,0.0,0.0,100,0.00,,SKC,0.00,VWS V13.01,2013-07-28 05:46:00,
2013-07-28 00:47:00,72.1,72.1,17.72,NNW,334,0.0,0.0,100,0.00,,SKC,0.00,VWS V13.01,2013-07-28 05:47:00,
2013-07-28 00:48:00,72.1,72.1,17.72,NNW,334,0.0,0.0,100,0.00,,SKC,0.00,VWS V13.01,2013-07-28 05:48:00,
2013-07-28 00:49:00,72.1,72.1,17.72,NNW,334,0.0,0.0,100,0.00,,SKC,0.00,VWS V13.01,2013-07-28 05:49:00,
2013-07-28 00:50:00,72.1,72.1,17.72,NNW,334,0.0,0.0,100,0.00,,SKC,0.00,VWS V13.01,2013-07-28 05:50:00,
2013-07-28 00:51:00,72.1,72.1,17.72,NNW,334,0.0,0.0,100,0.00,,SKC,0.00,VWS V13.01,2013-07-28 05:51:00,
2013-07-28 00:52:00,72.1,72.1,17.72,NNW,334,0.0,0.0,100,0.00,,SKC,0.00,VWS V13.01,2013-07-28 05:52:00,
2013-07-28 00:53:00,72.1,72.1,17.72,NNW,334,0.0,0.0,100,0.00,,SKC,0.00,VWS V13.01,2013-07-28 05:53:00,
2013-07-28 00:54:00,72.1,72.1,17.72,NNW,334,0.0,0.0,100,0.00,,SKC,0.00,VWS V13.01,2013-07-28 05:54:00,
2013-07-28 00:55:00,72.1,72.1,17.72,SW,217,2.2,3.1,100,0.00,,SKC,0.00,VWS V13.01,2013-07-28 05:55:00,
2013-07-28 00:56:00,72.1,72.1,17.72,SW,216,0.0,2.2,100,0.00,,SKC,0.00,VWS V13.01,2013-07-28 05:56:00,
2013-07-28 00:57:00,72.1,72.1,17.72,SW,217,0.0,0.0,100,0.00,,SKC,0.00,VWS V13.01,2013-07-28 05:57:00,
2013-07-28 00:59:00,72.1,72.1,17.72,West,267,0.0,3.6,100,0.00,,SKC,0.00,VWS V13.01,2013-07-28 05:59:00,
2013-07-28 01:00:00,72.1,72.1,17.72,West,270,0.0,0.0,100,0.00,,SKC,0.00,VWS V13.01,2013-07-28 06:00:00,
2013-07-28 01:01:00,72.1,72.1,17.72,West,270,0.0,0.0,100,0.00,,SKC,0.00,VWS V13.01,2013-07-28 06:01:00,
2013-07-28 01:02:00,72.1,72.1,17.72,West,270,0.0,0.0,100,0.00,,SKC,0.00,VWS V13.01,2013-07-28 06:02:00,
2013-07-28 01:03:00,72.1,72.1,17.72,West,270,0.0,0.0,100,0.00,,SKC,0.00,VWS V13.01,2013-07-28 06:03:00,
2013-07-28 01:04:00,72.1,72.1,17.72,West,270,0.0,0.0,100,0.00,,SKC,0.00,VWS V13.01,2013-07-28 06:04:00,
2013-07-28 01:05:00,72.1,72.1,17.72,WSW,258,3.1,4.0,100,0.00,,SKC,0.00,VWS V13.01,2013-07-28 06:05:00,
2013-07-28 01:07:00,72.1,72.1,17.72,NNW,327,0.0,2.7,100,0.00,,SKC,0.00,VWS V13.01,2013-07-28 06:07:00,
2013-07-28 01:08:00,72.1,72.1,17.72,SW,219,0.0,2.7,100,0.00,,SKC,0.00,VWS V13.01,2013-07-28 06:08:00,
2013-07-28 01:09:00,72.1,72.1,17.72,SW,219,0.0,0.0,100,0.00,,SKC,0.00,VWS V13.01,2013-07-28 06:09:00,
2013-07-28 01:10:00,72.3,72.3,17.72,West,263,0.0,3.1,100,0.00,,SKC,0.00,VWS V13.01,2013-07-28 06:10:00,
2013-07-28 01:11:00,72.3,72.3,17.72,West,263,0.0,3.1,100,0.00,,SKC,0.00,VWS V13.01,2013-07-28 06:11:00,
2013-07-28 01:12:00,72.3,72.3,17.72,West,263,0.0,0.0,100,0.00,,SKC,0.00,VWS V13.01,2013-07-28 06:12:00,
2013-07-28 01:13:00,72.3,72.3,17.72,WNW,291,0.0,3.6,100,0.00,,SKC,0.00,VWS V13.01,2013-07-28 06:13:00,
2013-07-28 01:14:00,72.3,72.3,17.72,WNW,291,0.0,0.0,100,0.00,,SKC,0.00,VWS V13.01,2013-07-28 06:14:00,
2013-07-28 01:15:00,72.3,72.3,17.72,WNW,291,0.0,0.0,100,0.00,,SKC,0.00,VWS V13.01,2013-07-28 06:15:00,
2013-07-28 01:16:00,72.3,72.3,17.72,WNW,291,0.0,0.0,100,0.00,,SKC,0.00,VWS V13.01,2013-07-28 06:16:00,
2013-07-28 01:17:00,72.3,72.3,17.72,WNW,291,2.7,2.7,100,0.00,,SKC,0.00,VWS V13.01,2013-07-28 06:17:00,
2013-07-28 01:18:00,72.4,72.4,17.72,WNW,291,2.2,3.6,100,0.00,,SKC,0.00,VWS V13.01,2013-07-28 06:18:00,
2013-07-28 01:19:00,72.4,72.4,17.72,WNW,291,0.0,2.2,100,0.00,,SKC,0.00,VWS V13.01,2013-07-28 06:19:00,
2013-07-28 01:20:00,72.3,72.3,17.72,WNW,291,0.0,0.0,100,0.00,,SKC,0.00,VWS V13.01,2013-07-28 06:20:00,
2013-07-28 01:21:00,72.4,72.4,17.72,WNW,291,0.0,0.0,100,0.00,,SKC,0.00,VWS V13.01,2013-07-28 06:21:00,
2013-07-28 01:23:00,72.3,72.3,17.72,WNW,291,0.0,2.2,100,0.00,,SKC,0.00,VWS V13.01,2013-07-28 06:23:00,
2013-07-28 01:24:00,72.3,72.3,17.72,North,357,0.0,3.1,100,0.00,,SKC,0.00,VWS V13.01,2013-07-28 06:24:00,
2013-07-28 01:25:00,72.3,72.3,17.72,WNW,299,0.0,0.0,100,0.00,,SKC,0.00,VWS V13.01,2013-07-28 06:25:00,
2013-07-28 01:26:00,72.3,72.3,17.72,WNW,299,0.0,0.0,100,0.00,,SKC,0.00,VWS V13.01,2013-07-28 06:26:00,
2013-07-28 01:27:00,72.3,72.3,17.72,WNW,301,0.0,0.0,100,0.00,,SKC,0.00,VWS V13.01,2013-07-28 06:27:00,
2013-07-28 01:28:00,72.3,72.3,17.72,NNW,333,0.0,2.7,100,0.00,,SKC,0.00,VWS V13.01,2013-07-28 06:28:00,
2013-07-28 01:29:00,72.3,72.3,17.72,NNW,338,3.1,3.6,100,0.00,,SKC,0.00,VWS V13.01,2013-07-28 06:29:00,
2013-07-28 01:30:00,72.3,72.3,17.72,NNE,25,0.0,0.0,100,0.00,,SKC,0.00,VWS V13.01,2013-07-28 06:30:00,
2013-07-28 01:31:00,72.3,72.3,17.72,NW,307,2.2,2.2,100,0.00,,SKC,0.00,VWS V13.01,2013-07-28 06:31:00,
2013-07-28 01:32:00,72.3,72.3,17.72,WNW,299,2.7,2.7,100,0.00,,SKC,0.00,VWS V13.01,2013-07-28 06:32:00,
2013-07-28 01:33:00,72.3,72.3,17.72,NW,323,0.0,4.9,100,0.00,,SKC,0.00,VWS V13.01,2013-07-28 06:33:00,
2013-07-28 01:34:00,72.3,72.3,17.72,NNE,13,3.1,3.1,100,0.00,,SKC,0.00,VWS V13.01,2013-07-28 06:34:00,
2013-07-28 01:35:00,72.3,72.3,17.72,NNW,335,4.0,4.0,100,0.00,,SKC,0.00,VWS V13.01,2013-07-28 06:35:00,
2013-07-28 01:36:00,72.3,72.3,17.72,NNW,335,4.0,4.0,100,0.00,,SKC,0.00,VWS V13.01,2013-07-28 06:36:00,
2013-07-28 01:37:00,72.3,72.3,17.72,North,357,6.3,6.3,100,0.00,,SKC,0.00,VWS V13.01,2013-07-28 06:37:00,
2013-07-28 01:38:00,72.3,72.3,17.72,NNW,331,3.6,6.3,100,0.00,,SKC,0.00,VWS V13.01,2013-07-28 06:38:00,
2013-07-28 01:39:00,72.3,72.3,17.72,WNW,299,4.0,4.0,100,0.00,,SKC,0.00,VWS V13.01,2013-07-28 06:39:00,
2013-07-28 01:40:00,72.1,72.1,17.72,North,354,0.0,4.9,100,0.00,,SKC,0.00,VWS V13.01,2013-07-28 06:40:00,
2013-07-28 01:41:00,72.1,72.1,17.72,NNW,343,4.0,4.9,100,0.00,,SKC,0.00,VWS V13.01,2013-07-28 06:41:00,
2013-07-28 01:42:00,72.1,72.1,17.72,NNW,343,0.0,4.0,100,0.00,,SKC,0.00,VWS V13.01,2013-07-28 06:42:00,
2013-07-28 01:43:00,72.1,72.1,17.72,NW,313,3.6,5.8,100,0.00,,SKC,0.00,VWS V13.01,2013-07-28 06:43:00,
2013-07-28 01:44:00,72.1,72.1,17.72,NNW,347,3.6,4.0,100,0.00,,SKC,0.00,VWS V13.01,2013-07-28 06:44:00,
2013-07-28 01:45:00,72.1,72.1,17.72,NNW,345,4.9,4.9,100,0.00,,SKC,0.00,VWS V13.01,2013-07-28 06:45:00,
2013-07-28 01:46:00,72.1,72.1,17.72,NW,313,5.4,5.4,100,0.00,,SKC,0.00,VWS V13.01,2013-07-28 06:46:00,
2013-07-28 01:47:00,72.1,72.1,17.72,NW,324,4.0,5.4,100,0.00,,SKC,0.00,VWS V13.01,2013-07-28 06:47:00,
2013-07-28 01:48:00,72.1,72.1,17.72,NNW,330,3.6,4.0,100,0.00,,SKC,0.00,VWS V13.01,2013-07-28 06:48:00,
2013-07-28 01:49:00,72.1,72.1,17.72,NW,315,3.6,3.6,100,0.00,,SKC,0.00,VWS V13.01,2013-07-28 06:49:00,
2013-07-28 01:50:00,72.1,72.1,17.72,NNW,330,0.0,3.6,100,0.00,,SKC,0.00,VWS V13.01,2013-07-28 06:50:00,
2013-07-28 01:51:00,72.1,72.1,17.72,NNW,330,0.0,3.6,100,0.00,,SKC,0.00,VWS V13.01,2013-07-28 06:51:00,
2013-07-28 01:52:00,72.1,72.1,17.72,NNW,330,0.0,0.0,100,0.00,,SKC,0.00,VWS V13.01,2013-07-28 06:52:00,
2013-07-28 01:53:00,72.1,72.1,17.72,NNW,330,0.0,0.0,100,0.00,,SKC,0.00,VWS V13.01,2013-07-28 06:53:00,
2013-07-28 01:54:00,72.1,72.1,17.72,NNW,330,0.0,0.0,100,0.00,,SKC,0.00,VWS V13.01,2013-07-28 06:54:00,
2013-07-28 01:55:00,71.9,71.9,17.72,NNW,348,2.2,2.2,100,0.00,,SKC,0.00,VWS V13.01,2013-07-28 06:55:00,
2013-07-28 01:56:00,71.9,71.9,17.72,NNE,31,2.2,2.2,100,0.00,,SKC,0.00,VWS V13.01,2013-07-28 06:56:00,
2013-07-28 01:57:00,71.9,71.9,17.72,NNE,14,0.0,2.2,100,0.00,,SKC,0.00,VWS V13.01,2013-07-28 06:57:00,
2013-07-28 01:58:00,71.9,71.9,17.72,NW,312,4.0,4.0,100,0.00,,SKC,0.00,VWS V13.01,2013-07-28 06:58:00,
2013-07-28 01:59:00,71.9,71.9,17.72,NW,321,0.0,4.0,100,0.00,,SKC,0.00,VWS V13.01,2013-07-28 06:59:00,
2013-07-28 02:00:00,71.9,71.9,17.72,NNW,330,3.6,3.6,100,0.00,,SKC,0.00,VWS V13.01,2013-07-28 07:00:00,
2013-07-28 02:01:00,71.9,71.9,17.72,NNW,330,0.0,4.0,100,0.00,,SKC,0.00,VWS V13.01,2013-07-28 07:01:00,
2013-07-28 02:02:00,71.9,71.9,17.72,NNW,330,0.0,0.0,100,0.00,,SKC,0.00,VWS V13.01,2013-07-28 07:02:00,
2013-07-28 02:03:00,71.9,71.9,17.72,NNW,330,2.7,4.0,100,0.00,,SKC,0.00,VWS V13.01,2013-07-28 07:03:00,
2013-07-28 02:04:00,71.9,71.9,17.72,WNW,285,4.0,4.0,100,0.00,,SKC,0.00,VWS V13.01,2013-07-28 07:04:00,
2013-07-28 02:05:00,71.9,71.9,17.72,NNW,346,0.0,3.1,100,0.00,,SKC,0.00,VWS V13.01,2013-07-28 07:05:00,
2013-07-28 02:06:00,71.9,71.9,17.72,NNW,346,0.0,3.1,100,0.00,,SKC,0.00,VWS V13.01,2013-07-28 07:06:00,
2013-07-28 02:07:00,71.9,71.9,17.72,NNW,346,2.2,2.2,100,0.00,,SKC,0.00,VWS V13.01,2013-07-28 07:07:00,
2013-07-28 02:08:00,71.9,71.9,17.72,NNW,346,2.2,2.2,100,0.00,,SKC,0.00,VWS V13.01,2013-07-28 07:08:00,
2013-07-28 02:09:00,71.9,71.9,17.72,NNW,346,0.0,2.2,100,0.00,,SKC,0.00,VWS V13.01,2013-07-28 07:09:00,
2013-07-28 02:10:00,71.9,71.9,17.72,NNW,346,0.0,0.0,100,0.00,,SKC,0.00,VWS V13.01,2013-07-28 07:10:00,
2013-07-28 02:11:00,71.9,71.9,17.72,NNW,346,0.0,0.0,100,0.00,,SKC,0.00,VWS V13.01,2013-07-28 07:11:00,
2013-07-28 02:12:00,71.9,71.9,17.72,NNW,329,4.0,4.0,100,0.00,,SKC,0.00,VWS V13.01,2013-07-28 07:12:00,
2013-07-28 02:13:00,71.9,71.9,17.72,NW,308,0.0,4.0,100,0.00,,SKC,0.00,VWS V13.01,2013-07-28 07:13:00,
2013-07-28 02:14:00,71.9,71.9,17.72,NW,307,0.0,0.0,100,0.00,,SKC,0.00,VWS V13.01,2013-07-28 07:14:00,
2013-07-28 02:15:00,71.9,71.9,17.72,WNW,290,4.9,4.9,100,0.00,,SKC,0.00,VWS V13.01,2013-07-28 07:15:00,
2013-07-28 02:16:00,71.9,71.9,17.72,WNW,290,0.0,4.9,100,0.00,,SKC,0.00,VWS V13.01,2013-07-28 07:16:00,
2013-07-28 02:17:00,71.9,71.9,17.72,WNW,290,0.0,0.0,100,0.00,,SKC,0.00,VWS V13.01,2013-07-28 07:17:00,
2013-07-28 02:18:00,71.9,71.9,17.72,WNW,290,2.2,2.2,100,0.00,,SKC,0.00,VWS V13.01,2013-07-28 07:18:00,
2013-07-28 02:19:00,71.9,71.9,17.72,NW,325,2.7,3.1,100,0.00,,SKC,0.00,VWS V13.01,2013-07-28 07:19:00,
2013-07-28 02:20:00,71.9,71.9,17.72,North,352,5.8,5.8,100,0.00,,SKC,0.00,VWS V13.01,2013-07-28 07:20:00,
2013-07-28 02:21:00,71.9,71.9,17.72,NW,311,2.7,5.8,100,0.00,,SKC,0.00,VWS V13.01,2013-07-28 07:21:00,
2013-07-28 02:22:00,71.9,71.9,17.72,SW,228,2.2,3.1,100,0.00,,SKC,0.00,VWS V13.01,2013-07-28 07:22:00,
2013-07-28 02:23:00,71.9,71.9,17.72,West,281,4.9,6.3,100,0.00,,SKC,0.00,VWS V13.01,2013-07-28 07:23:00,
2013-07-28 02:24:00,71.7,71.7,17.72,West,281,0.0,4.9,100,0.00,,SKC,0.00,VWS V13.01,2013-07-28 07:24:00,
2013-07-28 02:25:00,71.7,71.7,17.72,NW,306,0.0,2.7,100,0.00,,SKC,0.00,VWS V13.01,2013-07-28 07:25:00,
2013-07-28 02:26:00,71.7,71.7,17.72,NW,309,3.6,3.6,100,0.00,,SKC,0.00,VWS V13.01,2013-07-28 07:26:00,
2013-07-28 02:27:00,71.7,71.7,17.72,NW,309,2.7,3.6,100,0.00,,SKC,0.00,VWS V13.01,2013-07-28 07:27:00,
2013-07-28 02:28:00,71.7,71.7,17.72,NNE,24,3.1,3.1,100,0.00,,SKC,0.00,VWS V13.01,2013-07-28 07:28:00,
2013-07-28 02:29:00,71.7,71.7,17.72,NNE,13,0.0,3.1,100,0.00,,SKC,0.00,VWS V13.01,2013-07-28 07:29:00,
2013-07-28 02:30:00,71.7,71.7,17.72,NNW,344,3.1,3.6,100,0.00,,SKC,0.00,VWS V13.01,2013-07-28 07:30:00,
2013-07-28 02:31:00,71.7,71.7,17.72,NNW,328,2.7,3.6,100,0.00,,SKC,0.00,VWS V13.01,2013-07-28 07:31:00,
2013-07-28 02:32:00,71.7,71.7,17.72,NNW,328,0.0,3.6,100,0.00,,SKC,0.00,VWS V13.01,2013-07-28 07:32:00,
2013-07-28 02:33:00,71.7,71.7,17.72,NNW,340,3.6,5.4,100,0.00,,SKC,0.00,VWS V13.01,2013-07-28 07:33:00,
2013-07-28 02:34:00,71.7,71.7,17.72,NW,316,3.1,4.9,100,0.00,,SKC,0.00,VWS V13.01,2013-07-28 07:34:00,
2013-07-28 02:35:00,71.7,71.7,17.72,NW,316,0.0,0.0,100,0.00,,SKC,0.00,VWS V13.01,2013-07-28 07:35:00,
2013-07-28 02:36:00,71.7,71.7,17.72,NNW,338,2.2,2.2,100,0.00,,SKC,0.00,VWS V13.01,2013-07-28 07:36:00,
2013-07-28 02:37:00,71.7,71.7,17.72,NNW,339,0.0,3.1,100,0.00,,SKC,0.00,VWS V13.01,2013-07-28 07:37:00,
2013-07-28 02:38:00,71.7,71.7,17.72,NNW,339,0.0,0.0,100,0.00,,SKC,0.00,VWS V13.01,2013-07-28 07:38:00,
2013-07-28 02:39:00,71.7,71.7,17.72,NNW,339,2.2,2.7,100,0.00,,SKC,0.00,VWS V13.01,2013-07-28 07:39:00,
2013-07-28 02:40:00,71.7,71.7,17.72,NNW,339,0.0,0.0,100,0.00,,SKC,0.00,VWS V13.01,2013-07-28 07:40:00,
2013-07-28 02:41:00,71.7,71.7,17.72,NNW,339,3.6,3.6,100,0.00,,SKC,0.00,VWS V13.01,2013-07-28 07:41:00,
2013-07-28 02:42:00,71.7,71.7,17.72,NNW,333,2.7,4.0,100,0.00,,SKC,0.00,VWS V13.01,2013-07-28 07:42:00,
2013-07-28 02:43:00,71.7,71.7,17.72,NNW,331,2.7,2.7,100,0.00,,SKC,0.00,VWS V13.01,2013-07-28 07:43:00,
2013-07-28 02:44:00,71.7,71.7,17.72,NNW,344,2.7,4.9,100,0.00,,SKC,0.00,VWS V13.01,2013-07-28 07:44:00,
2013-07-28 02:45:00,71.7,71.7,17.72,NNW,343,3.1,4.0,100,0.00,,SKC,0.00,VWS V13.01,2013-07-28 07:45:00,
2013-07-28 02:46:00,71.7,71.7,17.72,NNW,343,2.7,4.0,100,0.00,,SKC,0.00,VWS V13.01,2013-07-28 07:46:00,
2013-07-28 02:47:00,71.7,71.7,17.72,NNW,343,0.0,3.1,100,0.00,,SKC,0.00,VWS V13.01,2013-07-28 07:47:00,
2013-07-28 02:48:00,71.7,71.7,17.72,WNW,286,3.6,3.6,100,0.00,,SKC,0.00,VWS V13.01,2013-07-28 07:48:00,
2013-07-28 02:49:00,71.7,71.7,17.72,West,261,0.0,3.6,100,0.00,,SKC,0.00,VWS V13.01,2013-07-28 07:49:00,
2013-07-28 02:50:00,71.7,71.7,17.72,North,352,2.2,3.1,100,0.00,,SKC,0.00,VWS V13.01,2013-07-28 07:50:00,
2013-07-28 02:51:00,71.7,71.7,17.72,NW,304,3.1,3.1,100,0.00,,SKC,0.00,VWS V13.01,2013-07-28 07:51:00,
2013-07-28 02:52:00,71.7,71.7,17.72,NNW,337,3.1,3.1,100,0.00,,SKC,0.00,VWS V13.01,2013-07-28 07:52:00,
2013-07-28 02:53:00,71.5,71.5,17.72,NNW,336,0.0,3.1,100,0.00,,SKC,0.00,VWS V13.01,2013-07-28 07:53:00,
2013-07-28 02:54:00,71.5,71.5,17.72,NNW,336,0.0,0.0,100,0.00,,SKC,0.00,VWS V13.01,2013-07-28 07:54:00,
2013-07-28 02:55:00,71.5,71.5,17.72,NNW,330,2.7,2.7,100,0.00,,SKC,0.00,VWS V13.01,2013-07-28 07:55:00,
2013-07-28 02:56:00,71.5,71.5,17.72,NW,306,2.7,2.7,100,0.00,,SKC,0.00,VWS V13.01,2013-07-28 07:56:00,
2013-07-28 02:57:00,71.5,71.5,17.72,NW,311,2.2,3.6,100,0.00,,SKC,0.00,VWS V13.01,2013-07-28 07:57:00,
2013-07-28 02:58:00,71.5,71.5,17.72,North,350,2.7,3.1,100,0.00,,SKC,0.00,VWS V13.01,2013-07-28 07:58:00,
2013-07-28 02:59:00,71.5,71.5,17.72,WNW,302,3.1,3.1,100,0.00,,SKC,0.00,VWS V13.01,2013-07-28 07:59:00,
2013-07-28 03:00:00,71.5,71.5,17.72,NNW,339,0.0,3.1,100,0.00,,SKC,0.00,VWS V13.01,2013-07-28 08:00:00,
2013-07-28 03:01:00,71.5,71.5,17.72,NNW,339,0.0,3.1,100,0.00,,SKC,0.00,VWS V13.01,2013-07-28 08:01:00,
2013-07-28 03:02:00,71.5,71.5,17.72,North,353,2.2,3.1,100,0.00,,SKC,0.00,VWS V13.01,2013-07-28 08:02:00,
2013-07-28 03:03:00,71.5,71.5,17.72,NNW,332,2.2,2.2,100,0.00,,SKC,0.00,VWS V13.01,2013-07-28 08:03:00,
2013-07-28 03:05:00,71.4,71.4,17.72,NNW,327,3.1,4.9,100,0.00,,SKC,0.00,VWS V13.01,2013-07-28 08:05:00,
2013-07-28 03:06:00,71.4,71.4,17.72,NW,309,4.0,4.9,100,0.00,,SKC,0.00,VWS V13.01,2013-07-28 08:06:00,
2013-07-28 03:07:00,71.4,71.4,17.72,North,352,0.0,4.0,100,0.00,,SKC,0.00,VWS V13.01,2013-07-28 08:07:00,
2013-07-28 03:08:00,71.4,71.4,17.72,NNW,328,3.1,4.0,100,0.00,,SKC,0.00,VWS V13.01,2013-07-28 08:08:00,
2013-07-28 03:10:00,71.4,71.4,17.72,NW,323,0.0,2.7,100,0.00,,SKC,0.00,VWS V13.01,2013-07-28 08:10:00,
2013-07-28 03:11:00,71.4,71.4,17.72,NW,323,0.0,2.7,100,0.00,,SKC,0.00,VWS V13.01,2013-07-28 08:11:00,
2013-07-28 03:12:00,71.4,71.4,17.72,NW,310,3.6,3.6,100,0.00,,SKC,0.00,VWS V13.01,2013-07-28 08:12:00,
2013-07-28 03:13:00,71.4,71.4,17.72,NNW,345,0.0,3.6,100,0.00,,SKC,0.00,VWS V13.01,2013-07-28 08:13:00,
2013-07-28 03:14:00,71.2,71.2,17.72,NNW,345,0.0,2.7,100,0.00,,SKC,0.00,VWS V13.01,2013-07-28 08:14:00,
2013-07-28 03:15:00,71.2,71.2,17.72,NNW,329,0.0,2.7,100,0.00,,SKC,0.00,VWS V13.01,2013-07-28 08:15:00,
2013-07-28 03:16:00,71.2,71.2,17.72,NNW,334,4.0,4.0,100,0.00,,SKC,0.00,VWS V13.01,2013-07-28 08:16:00,
2013-07-28 03:17:00,71.2,71.2,17.72,NNW,334,0.0,4.0,100,0.00,,SKC,0.00,VWS V13.01,2013-07-28 08:17:00,
2013-07-28 03:20:00,71.2,71.2,17.72,West,261,0.0,0.0,100,0.00,,SKC,0.00,VWS V13.01,2013-07-28 08:20:00,
2013-07-28 03:21:00,71.2,71.2,17.72,West,261,0.0,0.0,100,0.00,,SKC,0.00,VWS V13.01,2013-07-28 08:21:00,
2013-07-28 03:22:00,71.0,71.0,17.72,NNW,327,0.0,0.0,100,0.00,,SKC,0.00,VWS V13.01,2013-07-28 08:22:00,
2013-07-28 03:23:00,71.0,71.0,17.72,NNW,327,0.0,0.0,100,0.00,,SKC,0.00,VWS V13.01,2013-07-28 08:23:00,
2013-07-28 03:24:00,71.0,71.0,17.72,NNW,327,0.0,0.0,100,0.00,,SKC,0.00,VWS V13.01,2013-07-28 08:24:00,
2013-07-28 03:25:00,71.0,71.0,17.72,NNW,327,0.0,0.0,100,0.00,,SKC,0.00,VWS V13.01,2013-07-28 08:25:00,
2013-07-28 03:26:00,71.0,71.0,17.72,NNW,327,0.0,0.0,100,0.00,,SKC,0.00,VWS V13.01,2013-07-28 08:26:00,
2013-07-28 03:27:00,71.0,71.0,17.72,NNW,327,0.0,0.0,100,0.00,,SKC,0.00,VWS V13.01,2013-07-28 08:27:00,
2013-07-28 03:28:00,71.0,71.0,17.72,NW,324,3.6,3.6,100,0.00,,SKC,0.00,VWS V13.01,2013-07-28 08:28:00,
2013-07-28 03:29:00,71.0,71.0,17.72,NNW,340,2.7,4.0,100,0.00,,SKC,0.00,VWS V13.01,2013-07-28 08:29:00,
2013-07-28 03:30:00,70.8,70.8,17.72,NW,320,0.0,4.0,100,0.00,,SKC,0.00,VWS V13.01,2013-07-28 08:30:00,
2013-07-28 03:31:00,70.8,70.8,17.72,NW,320,0.0,4.0,100,0.00,,SKC,0.00,VWS V13.01,2013-07-28 08:31:00,
2013-07-28 03:32:00,70.8,70.8,17.72,North,357,0.0,3.6,100,0.00,,SKC,0.00,VWS V13.01,2013-07-28 08:32:00,
2013-07-28 03:33:00,70.8,70.8,17.72,North,357,0.0,2.2,100,0.00,,SKC,0.00,VWS V13.01,2013-07-28 08:33:00,
2013-07-28 03:34:00,70.8,70.8,17.72,North,357,0.0,0.0,100,0.00,,SKC,0.00,VWS V13.01,2013-07-28 08:34:00,
2013-07-28 03:35:00,70.6,70.6,17.72,North,357,0.0,0.0,100,0.00,,SKC,0.00,VWS V13.01,2013-07-28 08:35:00,
2013-07-28 03:36:00,70.6,70.6,17.72,North,357,0.0,0.0,100,0.00,,SKC,0.00,VWS V13.01,2013-07-28 08:36:00,
2013-07-28 03:37:00,70.6,70.6,17.72,North,357,0.0,0.0,100,0.00,,SKC,0.00,VWS V13.01,2013-07-28 08:37:00,
2013-07-28 03:39:00,70.6,70.6,17.72,North,357,0.0,0.0,100,0.00,,SKC,0.00,VWS V13.01,2013-07-28 08:39:00,
2013-07-28 03:40:00,70.6,70.6,17.72,NW,322,0.0,2.7,100,0.00,,SKC,0.00,VWS V13.01,2013-07-28 08:40:00,
2013-07-28 03:41:00,70.6,70.6,17.72,WNW,297,3.1,3.1,100,0.00,,SKC,0.00,VWS V13.01,2013-07-28 08:41:00,
2013-07-28 03:42:00,70.6,70.6,17.72,WNW,297,0.0,3.1,100,0.00,,SKC,0.00,VWS V13.01,2013-07-28 08:42:00,
2013-07-28 03:43:00,70.6,70.6,17.72,WNW,297,0.0,0.0,100,0.00,,SKC,0.00,VWS V13.01,2013-07-28 08:43:00,
2013-07-28 03:44:00,70.6,70.6,17.72,WNW,297,0.0,0.0,100,0.00,,SKC,0.00,VWS V13.01,2013-07-28 08:44:00,
2013-07-28 03:45:00,70.6,70.6,17.72,WNW,297,0.0,0.0,100,0.00,,SKC,0.00,VWS V13.01,2013-07-28 08:45:00,
2013-07-28 03:46:00,70.6,70.6,17.72,WNW,297,0.0,0.0,100,0.00,,SKC,0.00,VWS V13.01,2013-07-28 08:46:00,
2013-07-28 03:47:00,70.6,70.6,17.72,WNW,297,0.0,0.0,100,0.00,,SKC,0.00,VWS V13.01,2013-07-28 08:47:00,
2013-07-28 03:48:00,70.6,70.6,17.72,NNW,343,0.0,0.0,100,0.00,,SKC,0.00,VWS V13.01,2013-07-28 08:48:00,
2013-07-28 03:49:00,70.6,70.6,17.72,North,357,0.0,2.2,100,0.00,,SKC,0.00,VWS V13.01,2013-07-28 08:49:00,
2013-07-28 03:50:00,70.6,70.6,17.72,North,357,0.0,0.0,100,0.00,,SKC,0.00,VWS V13.01,2013-07-28 08:50:00,
2013-07-28 03:51:00,70.5,70.5,17.72,North,357,0.0,0.0,100,0.00,,SKC,0.00,VWS V13.01,2013-07-28 08:51:00,
2013-07-28 03:52:00,70.5,70.5,17.72,North,357,0.0,0.0,100,0.00,,SKC,0.00,VWS V13.01,2013-07-28 08:52:00,
2013-07-28 03:53:00,70.5,70.5,17.72,NW,322,2.7,3.6,100,0.00,,SKC,0.00,VWS V13.01,2013-07-28 08:53:00,
2013-07-28 03:54:00,70.5,70.5,17.72,NW,322,0.0,2.7,100,0.00,,SKC,0.00,VWS V13.01,2013-07-28 08:54:00,
2013-07-28 03:55:00,70.5,70.5,17.72,NNW,329,2.7,3.1,100,0.00,,SKC,0.00,VWS V13.01,2013-07-28 08:55:00,
2013-07-28 03:56:00,70.5,70.5,17.72,North,359,0.0,3.1,100,0.00,,SKC,0.00,VWS V13.01,2013-07-28 08:56:00,
2013-07-28 03:57:00,70.5,70.5,17.72,North,359,0.0,0.0,100,0.00,,SKC,0.00,VWS V13.01,2013-07-28 08:57:00,
2013-07-28 03:58:00,70.5,70.5,17.72,West,265,3.1,3.1,100,0.00,,SKC,0.00,VWS V13.01,2013-07-28 08:58:00,
2013-07-28 03:59:00,70.5,70.5,17.72,WNW,284,3.1,4.5,100,0.00,,SKC,0.00,VWS V13.01,2013-07-28 08:59:00,
2013-07-28 04:00:00,70.5,70.5,17.72,WNW,285,0.0,0.0,100,0.00,,SKC,0.00,VWS V13.01,2013-07-28 09:00:00,
2013-07-28 04:01:00,70.5,70.5,17.72,WNW,285,0.0,0.0,100,0.00,,SKC,0.00,VWS V13.01,2013-07-28 09:01:00,
2013-07-28 04:02:00,70.5,70.5,17.72,WNW,285,0.0,0.0,100,0.00,,SKC,0.00,VWS V13.01,2013-07-28 09:02:00,
2013-07-28 04:03:00,70.5,70.5,17.72,WNW,285,0.0,0.0,100,0.00,,SKC,0.00,VWS V13.01,2013-07-28 09:03:00,
2013-07-28 04:04:00,70.5,70.5,17.72,WNW,285,0.0,2.7,100,0.00,,SKC,0.00,VWS V13.01,2013-07-28 09:04:00,
2013-07-28 04:05:00,70.5,70.5,17.72,WNW,285,0.0,0.0,100,0.00,,SKC,0.00,VWS V13.01,2013-07-28 09:05:00,
2013-07-28 04:06:00,70.5,70.5,17.72,WNW,285,0.0,0.0,100,0.00,,SKC,0.00,VWS V13.01,2013-07-28 09:06:00,
2013-07-28 04:07:00,70.5,70.5,17.72,WNW,285,0.0,0.0,100,0.00,,SKC,0.00,VWS V13.01,2013-07-28 09:07:00,
2013-07-28 04:08:00,70.5,70.5,17.72,WNW,285,0.0,0.0,100,0.00,,SKC,0.00,VWS V13.01,2013-07-28 09:08:00,
2013-07-28 04:09:00,70.5,70.5,17.72,WNW,285,0.0,0.0,100,0.00,,SKC,0.00,VWS V13.01,2013-07-28 09:09:00,
2013-07-28 04:10:00,70.5,70.5,17.72,WNW,285,0.0,0.0,100,0.00,,SKC,0.00,VWS V13.01,2013-07-28 09:10:00,
2013-07-28 04:11:00,70.5,70.5,17.72,WNW,285,0.0,0.0,100,0.00,,SKC,0.00,VWS V13.01,2013-07-28 09:11:00,
2013-07-28 04:12:00,70.5,70.5,17.72,WNW,285,0.0,0.0,100,0.00,,SKC,0.00,VWS V13.01,2013-07-28 09:12:00,
2013-07-28 04:13:00,70.5,70.5,17.72,WNW,285,0.0,0.0,100,0.00,,SKC,0.00,VWS V13.01,2013-07-28 09:13:00,
2013-07-28 04:14:00,70.5,70.5,17.72,WNW,282,0.0,0.0,100,0.00,,SKC,0.00,VWS V13.01,2013-07-28 09:14:00,
2013-07-28 04:15:00,70.5,70.5,17.72,WSW,257,2.7,2.7,100,0.00,,SKC,0.00,VWS V13.01,2013-07-28 09:15:00,
2013-07-28 04:16:00,70.5,70.5,17.72,West,259,0.0,2.7,100,0.00,,SKC,0.00,VWS V13.01,2013-07-28 09:16:00,
2013-07-28 04:17:00,70.3,70.3,17.72,SW,225,2.2,3.6,100,0.00,,SKC,0.00,VWS V13.01,2013-07-28 09:17:00,
2013-07-28 04:18:00,70.3,70.3,17.72,West,271,2.2,3.6,100,0.00,,SKC,0.00,VWS V13.01,2013-07-28 09:18:00,
2013-07-28 04:19:00,70.3,70.3,17.72,NNW,337,2.7,3.1,100,0.00,,SKC,0.00,VWS V13.01,2013-07-28 09:19:00,
2013-07-28 04:20:00,70.3,70.3,17.72,North,351,2.7,2.7,100,0.00,,SKC,0.00,VWS V13.01,2013-07-28 09:20:00,
2013-07-28 04:21:00,70.3,70.3,17.72,NNW,348,0.0,2.7,100,0.00,,SKC,0.00,VWS V13.01,2013-07-28 09:21:00,
2013-07-28 04:22:00,70.3,70.3,17.72,NNW,343,0.0,0.0,100,0.00,,SKC,0.00,VWS V13.01,2013-07-28 09:22:00,
2013-07-28 04:23:00,70.3,70.3,17.72,NNW,334,2.7,3.1,100,0.00,,SKC,0.00,VWS V13.01,2013-07-28 09:23:00,
2013-07-28 04:24:00,70.3,70.3,17.72,NNW,345,3.1,5.4,100,0.00,,SKC,0.00,VWS V13.01,2013-07-28 09:24:00,
2013-07-28 04:25:00,70.3,70.3,17.72,WNW,294,5.4,5.4,100,0.00,,SKC,0.00,VWS V13.01,2013-07-28 09:25:00,
2013-07-28 04:26:00,70.3,70.3,17.72,NNW,335,4.9,5.4,100,0.00,,SKC,0.00,VWS V13.01,2013-07-28 09:26:00,
2013-07-28 04:27:00,70.3,70.3,17.72,NNW,335,0.0,4.9,100,0.00,,SKC,0.00,VWS V13.01,2013-07-28 09:27:00,
2013-07-28 04:28:00,70.3,70.3,17.72,NNW,328,2.7,3.6,100,0.00,,SKC,0.00,VWS V13.01,2013-07-28 09:28:00,
2013-07-28 04:29:00,70.3,70.3,17.72,NNW,348,2.7,4.9,100,0.00,,SKC,0.00,VWS V13.01,2013-07-28 09:29:00,
2013-07-28 04:30:00,70.3,70.3,17.72,WNW,299,3.6,5.4,100,0.00,,SKC,0.00,VWS V13.01,2013-07-28 09:30:00,
2013-07-28 04:31:00,70.3,70.3,17.72,WNW,289,0.0,5.4,100,0.00,,SKC,0.00,VWS V13.01,2013-07-28 09:31:00,
2013-07-28 04:32:00,70.3,70.3,17.72,NW,307,6.3,6.3,100,0.00,,SKC,0.00,VWS V13.01,2013-07-28 09:32:00,
2013-07-28 04:33:00,70.3,70.3,17.72,NW,326,5.4,7.6,100,0.00,,SKC,0.00,VWS V13.01,2013-07-28 09:33:00,
2013-07-28 04:34:00,70.3,70.3,17.72,North,349,4.0,5.4,100,0.00,,SKC,0.00,VWS V13.01,2013-07-28 09:34:00,
2013-07-28 04:35:00,70.3,70.3,17.72,NW,321,5.4,5.4,100,0.00,,SKC,0.00,VWS V13.01,2013-07-28 09:35:00,
2013-07-28 04:36:00,70.3,70.3,17.72,North,2,4.0,5.8,100,0.00,,SKC,0.00,VWS V13.01,2013-07-28 09:36:00,
2013-07-28 04:37:00,70.5,70.5,17.72,NNW,344,3.1,4.9,100,0.00,,SKC,0.00,VWS V13.01,2013-07-28 09:37:00,
2013-07-28 04:38:00,70.3,70.3,17.72,NW,315,4.0,4.0,100,0.00,,SKC,0.00,VWS V13.01,2013-07-28 09:38:00,
2013-07-28 04:39:00,70.3,70.3,17.72,NW,315,3.6,4.9,100,0.00,,SKC,0.00,VWS V13.01,2013-07-28 09:39:00,
2013-07-28 04:40:00,70.3,70.3,17.72,NNW,344,0.0,3.1,100,0.00,,SKC,0.00,VWS V13.01,2013-07-28 09:40:00,
2013-07-28 04:41:00,70.3,70.3,17.72,NNW,344,0.0,3.1,100,0.00,,SKC,0.00,VWS V13.01,2013-07-28 09:41:00,
2013-07-28 04:42:00,70.3,70.3,17.72,NNW,328,2.7,3.1,100,0.00,,SKC,0.00,VWS V13.01,2013-07-28 09:42:00,
2013-07-28 04:43:00,70.3,70.3,17.72,WNW,296,3.6,4.0,100,0.00,,SKC,0.00,VWS V13.01,2013-07-28 09:43:00,
2013-07-28 04:44:00,70.3,70.3,17.72,NW,321,3.1,4.0,100,0.00,,SKC,0.00,VWS V13.01,2013-07-28 09:44:00,
2013-07-28 04:45:00,70.3,70.3,17.72,North,354,4.0,4.0,100,0.00,,SKC,0.00,VWS V13.01,2013-07-28 09:45:00,
2013-07-28 04:47:00,70.3,70.3,17.72,North,359,0.0,4.0,100,0.00,,SKC,0.00,VWS V13.01,2013-07-28 09:47:00,
2013-07-28 04:48:00,70.3,70.3,17.72,NNW,341,0.0,2.7,100,0.00,,SKC,0.00,VWS V13.01,2013-07-28 09:48:00,
2013-07-28 04:49:00,70.3,70.3,17.72,North,356,0.0,3.1,100,0.00,,SKC,0.00,VWS V13.01,2013-07-28 09:49:00,
2013-07-28 04:50:00,70.3,70.3,17.72,North,356,0.0,0.0,100,0.00,,SKC,0.00,VWS V13.01,2013-07-28 09:50:00,
2013-07-28 04:51:00,70.3,70.3,17.72,WNW,298,4.0,4.0,100,0.00,,SKC,0.00,VWS V13.01,2013-07-28 09:51:00,
2013-07-28 04:52:00,70.3,70.3,17.72,NW,319,3.1,4.0,100,0.00,,SKC,0.00,VWS V13.01,2013-07-28 09:52:00,
2013-07-28 04:53:00,70.3,70.3,17.72,NW,324,4.5,4.5,100,0.00,,SKC,0.00,VWS V13.01,2013-07-28 09:53:00,
2013-07-28 04:54:00,70.3,70.3,17.72,NW,316,2.7,6.3,100,0.00,,SKC,0.00,VWS V13.01,2013-07-28 09:54:00,
2013-07-28 04:55:00,70.3,70.3,17.72,WNW,296,3.6,4.0,100,0.00,,SKC,0.00,VWS V13.01,2013-07-28 09:55:00,
2013-07-28 04:56:00,70.3,70.3,17.72,North,10,3.1,4.9,100,0.00,,SKC,0.00,VWS V13.01,2013-07-28 09:56:00,
2013-07-28 04:57:00,70.3,70.3,17.72,North,350,2.7,4.0,100,0.00,,SKC,0.00,VWS V13.01,2013-07-28 09:57:00,
2013-07-28 04:58:00,70.3,70.3,17.72,NNW,331,3.6,3.6,100,0.00,,SKC,0.00,VWS V13.01,2013-07-28 09:58:00,
2013-07-28 04:59:00,70.3,70.3,17.72,West,272,3.1,4.9,100,0.00,,SKC,0.00,VWS V13.01,2013-07-28 09:59:00,
2013-07-28 05:00:00,70.1,70.1,17.72,NW,326,2.2,2.7,100,0.00,,SKC,0.00,VWS V13.01,2013-07-28 10:00:00,
2013-07-28 05:01:00,70.1,70.1,17.72,NW,309,3.6,3.6,100,0.00,,SKC,0.00,VWS V13.01,2013-07-28 10:01:00,
2013-07-28 05:02:00,70.1,70.1,17.72,NW,323,4.9,4.9,100,0.00,,SKC,0.00,VWS V13.01,2013-07-28 10:02:00,
2013-07-28 05:03:00,70.1,70.1,17.72,NW,312,6.3,6.3,100,0.00,,SKC,0.00,VWS V13.01,2013-07-28 10:03:00,
2013-07-28 05:04:00,70.1,70.1,17.72,North,1,2.2,7.2,100,0.00,,SKC,0.00,VWS V13.01,2013-07-28 10:04:00,
2013-07-28 05:05:00,70.1,70.1,17.72,North,355,4.0,4.0,100,0.00,,SKC,0.00,VWS V13.01,2013-07-28 10:05:00,
2013-07-28 05:06:00,70.1,70.1,17.72,NW,319,5.4,7.2,100,0.00,,SKC,0.00,VWS V13.01,2013-07-28 10:06:00,
2013-07-28 05:07:00,70.1,70.1,17.72,NNW,328,4.0,5.4,100,0.00,,SKC,0.00,VWS V13.01,2013-07-28 10:07:00,
2013-07-28 05:08:00,70.1,70.1,17.72,NNW,345,5.8,5.8,100,0.00,,SKC,0.00,VWS V13.01,2013-07-28 10:08:00,
2013-07-28 05:09:00,70.1,70.1,17.72,NW,320,5.8,8.1,100,0.00,,SKC,0.00,VWS V13.01,2013-07-28 10:09:00,
2013-07-28 05:10:00,69.9,69.9,17.72,WNW,293,2.7,5.4,100,0.00,,SKC,0.00,VWS V13.01,2013-07-28 10:10:00,
2013-07-28 05:11:00,69.9,69.9,17.72,NNW,347,4.0,6.3,100,0.00,,SKC,0.00,VWS V13.01,2013-07-28 10:11:00,
2013-07-28 05:12:00,69.9,69.9,17.72,NW,316,2.2,4.9,100,0.00,,SKC,0.00,VWS V13.01,2013-07-28 10:12:00,
2013-07-28 05:13:00,69.9,69.9,17.72,SW,229,4.9,5.4,100,0.00,,SKC,0.00,VWS V13.01,2013-07-28 10:13:00,
2013-07-28 05:15:00,69.9,69.9,17.72,North,9,2.2,2.2,100,0.00,,SKC,0.00,VWS V13.01,2013-07-28 10:15:00,
2013-07-28 05:16:00,69.9,69.9,17.72,NW,313,2.7,3.6,100,0.00,,SKC,0.00,VWS V13.01,2013-07-28 10:16:00,
2013-07-28 05:17:00,69.9,69.9,17.72,NW,309,0.0,3.1,100,0.00,,SKC,0.00,VWS V13.01,2013-07-28 10:17:00,
2013-07-28 05:18:00,69.9,69.9,17.72,NNW,345,3.6,3.6,100,0.00,,SKC,0.00,VWS V13.01,2013-07-28 10:18:00,
2013-07-28 05:19:00,69.7,69.8,17.72,West,271,0.0,4.0,100,0.00,,SKC,0.00,VWS V13.01,2013-07-28 10:19:00,
2013-07-28 05:20:00,69.7,69.7,17.72,West,263,0.0,0.0,100,0.00,,SKC,0.00,VWS V13.01,2013-07-28 10:20:00,
2013-07-28 05:21:00,69.7,69.8,17.72,North,350,2.2,2.2,100,0.00,,SKC,0.00,VWS V13.01,2013-07-28 10:21:00,
2013-07-28 05:22:00,69.7,69.8,17.72,WSW,255,0.0,2.2,100,0.00,,SKC,0.00,VWS V13.01,2013-07-28 10:22:00,
2013-07-28 05:23:00,69.7,69.8,17.72,NW,325,2.7,6.3,100,0.00,,SKC,0.00,VWS V13.01,2013-07-28 10:23:00,
2013-07-28 05:24:00,69.7,69.8,17.72,NNW,328,2.7,3.6,100,0.00,,SKC,0.00,VWS V13.01,2013-07-28 10:24:00,
2013-07-28 05:25:00,69.7,69.7,17.72,NNE,15,3.1,3.1,100,0.00,,SKC,0.00,VWS V13.01,2013-07-28 10:25:00,
2013-07-28 05:26:00,69.7,69.8,17.72,NW,323,4.0,4.5,100,0.00,,SKC,0.00,VWS V13.01,2013-07-28 10:26:00,
2013-07-28 05:27:00,69.7,69.8,17.72,NNW,334,3.6,5.8,100,0.00,,SKC,0.00,VWS V13.01,2013-07-28 10:27:00,
2013-07-28 05:28:00,69.7,69.8,17.72,NW,322,2.7,3.6,100,0.00,,SKC,0.00,VWS V13.01,2013-07-28 10:28:00,
2013-07-28 05:29:00,69.7,69.8,17.72,North,357,2.7,5.4,100,0.00,,SKC,0.00,VWS V13.01,2013-07-28 10:29:00,
2013-07-28 05:30:00,69.7,69.7,17.72,NNW,331,3.1,3.1,100,0.00,,SKC,0.00,VWS V13.01,2013-07-28 10:30:00,
2013-07-28 05:31:00,69.7,69.8,17.72,NNW,336,4.9,4.9,100,0.00,,SKC,0.00,VWS V13.01,2013-07-28 10:31:00,
2013-07-28 05:32:00,69.7,69.8,17.72,NNW,332,5.4,5.8,100,0.00,,SKC,0.00,VWS V13.01,2013-07-28 10:32:00,
2013-07-28 05:33:00,69.7,69.8,17.72,NE,39,4.0,5.8,100,0.00,,SKC,0.00,VWS V13.01,2013-07-28 10:33:00,
2013-07-28 05:34:00,69.7,69.8,17.72,NW,325,6.3,6.3,100,0.00,,SKC,0.00,VWS V13.01,2013-07-28 10:34:00,
2013-07-28 05:35:00,69.7,69.7,17.72,NNW,344,6.3,6.3,100,0.00,,SKC,0.00,VWS V13.01,2013-07-28 10:35:00,
2013-07-28 05:36:00,69.7,69.8,17.72,NNW,335,3.6,6.3,100,0.00,,SKC,0.00,VWS V13.01,2013-07-28 10:36:00,
2013-07-28 05:37:00,69.7,69.8,17.72,NNW,337,3.1,6.3,100,0.00,,SKC,0.00,VWS V13.01,2013-07-28 10:37:00,
2013-07-28 05:38:00,69.7,69.8,17.72,NNW,331,5.8,5.8,100,0.00,,SKC,0.00,VWS V13.01,2013-07-28 10:38:00,
2013-07-28 05:39:00,69.7,69.8,17.72,NW,319,4.0,6.3,100,0.00,,SKC,0.00,VWS V13.01,2013-07-28 10:39:00,
2013-07-28 05:40:00,69.7,69.7,17.72,NNW,337,5.4,5.4,100,0.00,,SKC,0.00,VWS V13.01,2013-07-28 10:40:00,
2013-07-28 05:41:00,69.7,69.8,17.72,WNW,300,4.0,5.4,100,0.00,,SKC,0.00,VWS V13.01,2013-07-28 10:41:00,
2013-07-28 05:42:00,69.6,69.6,17.72,NW,326,3.1,7.6,100,0.00,,SKC,0.00,VWS V13.01,2013-07-28 10:42:00,
2013-07-28 05:43:00,69.6,69.6,17.72,NNW,342,2.7,4.0,100,0.00,,SKC,0.00,VWS V13.01,2013-07-28 10:43:00,
2013-07-28 05:44:00,69.6,69.6,17.72,NW,312,2.2,5.4,100,0.00,,SKC,0.00,VWS V13.01,2013-07-28 10:44:00,
2013-07-28 05:45:00,69.6,69.6,17.72,NNW,337,3.6,3.6,100,0.00,,SKC,0.00,VWS V13.01,2013-07-28 10:45:00,
2013-07-28 05:46:00,69.6,69.6,17.72,NNW,341,0.0,4.0,100,0.00,,SKC,0.00,VWS V13.01,2013-07-28 10:46:00,
2013-07-28 05:47:00,69.6,69.6,17.72,West,259,0.0,2.7,100,0.00,,SKC,0.00,VWS V13.01,2013-07-28 10:47:00,
2013-07-28 05:48:00,69.6,69.6,17.72,West,259,0.0,2.2,100,0.00,,SKC,0.00,VWS V13.01,2013-07-28 10:48:00,
2013-07-28 05:49:00,69.6,69.6,17.72,West,259,0.0,0.0,100,0.00,,SKC,0.00,VWS V13.01,2013-07-28 10:49:00,
2013-07-28 05:50:00,69.6,69.6,17.72,West,259,0.0,0.0,100,0.00,,SKC,0.00,VWS V13.01,2013-07-28 10:50:00,
2013-07-28 05:51:00,69.6,69.6,17.72,NW,310,2.7,3.1,100,0.00,,SKC,0.00,VWS V13.01,2013-07-28 10:51:00,
2013-07-28 05:52:00,69.6,69.6,17.72,ENE,69,2.2,4.0,100,0.00,,SKC,0.00,VWS V13.01,2013-07-28 10:52:00,
2013-07-28 05:53:00,69.6,69.6,17.72,NNE,20,0.0,3.1,100,0.00,,SKC,0.00,VWS V13.01,2013-07-28 10:53:00,
2013-07-28 05:54:00,69.6,69.6,17.72,West,264,0.0,0.0,100,0.00,,SKC,0.00,VWS V13.01,2013-07-28 10:54:00,
2013-07-28 05:55:00,69.6,69.6,17.72,West,264,0.0,0.0,100,0.00,,SKC,0.00,VWS V13.01,2013-07-28 10:55:00,
2013-07-28 05:56:00,69.6,69.6,17.72,West,264,0.0,0.0,100,0.00,,SKC,0.00,VWS V13.01,2013-07-28 10:56:00,
2013-07-28 05:57:00,69.6,69.6,17.72,West,264,0.0,0.0,100,0.00,,SKC,0.00,VWS V13.01,2013-07-28 10:57:00,
2013-07-28 05:58:00,69.6,69.6,17.72,West,264,0.0,0.0,100,0.00,,SKC,0.00,VWS V13.01,2013-07-28 10:58:00,
2013-07-28 05:59:00,69.7,69.8,17.72,West,264,0.0,0.0,100,0.00,,SKC,0.00,VWS V13.01,2013-07-28 10:59:00,
2013-07-28 06:00:00,69.7,69.7,17.72,West,264,0.0,0.0,100,0.00,,SKC,0.00,VWS V13.01,2013-07-28 11:00:00,
2013-07-28 06:01:00,69.6,69.6,17.72,West,264,0.0,0.0,100,0.00,,SKC,0.00,VWS V13.01,2013-07-28 11:01:00,
2013-07-28 06:02:00,69.7,69.8,17.72,West,264,0.0,0.0,100,0.00,,SKC,0.00,VWS V13.01,2013-07-28 11:02:00,
2013-07-28 06:03:00,69.6,69.6,17.72,West,264,0.0,0.0,100,0.00,,SKC,0.00,VWS V13.01,2013-07-28 11:03:00,
2013-07-28 06:04:00,69.6,69.6,17.72,West,264,0.0,0.0,100,0.00,,SKC,0.00,VWS V13.01,2013-07-28 11:04:00,
2013-07-28 06:05:00,69.6,69.6,17.72,West,264,0.0,0.0,100,0.00,,SKC,0.00,VWS V13.01,2013-07-28 11:05:00,
2013-07-28 06:06:00,69.6,69.6,17.72,West,264,0.0,0.0,100,0.00,,SKC,0.00,VWS V13.01,2013-07-28 11:06:00,
2013-07-28 06:07:00,69.6,69.6,17.72,West,264,0.0,0.0,100,0.00,,SKC,0.00,VWS V13.01,2013-07-28 11:07:00,
2013-07-28 06:08:00,69.7,69.8,17.72,NW,323,0.0,0.0,100,0.00,,SKC,0.00,VWS V13.01,2013-07-28 11:08:00,
2013-07-28 06:09:00,69.7,69.8,17.72,NW,309,3.1,3.1,100,0.00,,SKC,0.00,VWS V13.01,2013-07-28 11:09:00,
2013-07-28 06:10:00,69.7,69.7,17.72,NNW,337,4.0,4.0,100,0.00,,SKC,0.00,VWS V13.01,2013-07-28 11:10:00,
2013-07-28 06:11:00,69.7,69.8,17.72,NNW,330,0.0,4.9,100,0.00,,SKC,0.00,VWS V13.01,2013-07-28 11:11:00,
2013-07-28 06:12:00,69.7,69.8,17.72,NW,315,2.7,3.1,100,0.00,,SKC,0.00,VWS V13.01,2013-07-28 11:12:00,
2013-07-28 06:13:00,69.7,69.8,17.72,NW,315,0.0,2.7,100,0.00,,SKC,0.00,VWS V13.01,2013-07-28 11:13:00,
2013-07-28 06:14:00,69.7,69.8,17.72,NNW,328,0.0,2.7,100,0.00,,SKC,0.00,VWS V13.01,2013-07-28 11:14:00,
2013-07-28 06:15:00,69.7,69.7,17.72,NW,318,2.7,5.4,100,0.00,,SKC,0.00,VWS V13.01,2013-07-28 11:15:00,
2013-07-28 06:16:00,69.7,69.8,17.72,NW,320,0.0,4.0,100,0.00,,SKC,0.00,VWS V13.01,2013-07-28 11:16:00,
2013-07-28 06:17:00,69.7,69.8,17.72,NW,320,0.0,0.0,100,0.00,,SKC,0.00,VWS V13.01,2013-07-28 11:17:00,
2013-07-28 06:18:00,69.7,69.8,17.72,NW,320,0.0,0.0,100,0.00,,SKC,0.00,VWS V13.01,2013-07-28 11:18:00,
2013-07-28 06:19:00,69.7,69.8,17.72,NW,320,0.0,0.0,100,0.00,,SKC,0.00,VWS V13.01,2013-07-28 11:19:00,
2013-07-28 06:20:00,69.7,69.7,17.72,NW,320,0.0,0.0,100,0.00,,SKC,0.00,VWS V13.01,2013-07-28 11:20:00,
2013-07-28 06:21:00,69.7,69.8,17.72,NW,320,0.0,0.0,100,0.00,,SKC,0.00,VWS V13.01,2013-07-28 11:21:00,
2013-07-28 06:22:00,69.7,69.8,17.72,NW,305,4.0,4.0,100,0.00,,SKC,0.00,VWS V13.01,2013-07-28 11:22:00,
2013-07-28 06:23:00,69.7,69.8,17.72,NNW,340,2.2,4.0,100,0.00,,SKC,0.00,VWS V13.01,2013-07-28 11:23:00,
2013-07-28 06:24:00,69.7,69.8,17.72,NNW,340,0.0,2.2,100,0.00,,SKC,0.00,VWS V13.01,2013-07-28 11:24:00,
2013-07-28 06:25:00,69.7,69.7,17.72,West,280,0.0,0.0,100,0.00,,SKC,0.00,VWS V13.01,2013-07-28 11:25:00,
2013-07-28 06:26:00,69.7,69.8,17.72,NW,311,3.6,3.6,100,0.00,,SKC,0.00,VWS V13.01,2013-07-28 11:26:00,
2013-07-28 06:27:00,69.7,69.8,17.72,NW,316,2.7,3.6,100,0.00,,SKC,0.00,VWS V13.01,2013-07-28 11:27:00,
2013-07-28 06:28:00,69.7,69.8,17.72,NNW,344,0.0,3.6,100,0.00,,SKC,0.00,VWS V13.01,2013-07-28 11:28:00,
2013-07-28 06:29:00,69.7,69.8,17.72,NNW,344,0.0,2.2,100,0.00,,SKC,0.00,VWS V13.01,2013-07-28 11:29:00,
2013-07-28 06:30:00,69.7,69.7,17.72,NNW,344,0.0,0.0,100,0.00,,SKC,0.00,VWS V13.01,2013-07-28 11:30:00,
2013-07-28 06:31:00,69.7,69.8,17.72,NNW,344,0.0,0.0,100,0.00,,SKC,0.00,VWS V13.01,2013-07-28 11:31:00,
2013-07-28 06:32:00,69.7,69.8,17.72,NNW,344,0.0,0.0,100,0.00,,SKC,0.00,VWS V13.01,2013-07-28 11:32:00,
2013-07-28 06:35:00,69.7,69.7,17.72,NNW,344,0.0,0.0,100,0.00,,SKC,0.00,VWS V13.01,2013-07-28 11:35:00,
2013-07-28 06:36:00,69.7,69.8,17.72,NNW,333,4.0,4.0,100,0.00,,SKC,0.00,VWS V13.01,2013-07-28 11:36:00,
2013-07-28 06:37:00,69.7,69.8,17.72,NNW,333,0.0,4.0,100,0.00,,SKC,0.00,VWS V13.01,2013-07-28 11:37:00,
2013-07-28 06:38:00,69.7,69.8,17.72,NNW,333,0.0,0.0,100,0.00,,SKC,0.00,VWS V13.01,2013-07-28 11:38:00,
2013-07-28 06:39:00,69.7,69.8,17.72,NNW,333,0.0,0.0,100,0.00,,SKC,0.00,VWS V13.01,2013-07-28 11:39:00,
2013-07-28 06:40:00,69.7,69.7,17.72,NNW,332,0.0,0.0,100,0.00,,SKC,0.00,VWS V13.01,2013-07-28 11:40:00,
2013-07-28 06:41:00,69.7,69.8,17.72,NNW,332,0.0,0.0,100,0.00,,SKC,0.00,VWS V13.01,2013-07-28 11:41:00,
2013-07-28 06:43:00,69.7,69.8,17.72,NNW,332,0.0,0.0,100,0.00,,SKC,0.00,VWS V13.01,2013-07-28 11:43:00,
2013-07-28 06:44:00,69.7,69.8,17.72,NNW,332,0.0,0.0,100,0.00,,SKC,0.00,VWS V13.01,2013-07-28 11:44:00,
2013-07-28 06:45:00,69.7,69.7,17.72,NNW,332,0.0,0.0,100,0.00,,SKC,0.00,VWS V13.01,2013-07-28 11:45:00,
2013-07-28 06:46:00,69.7,69.8,17.72,NNW,332,0.0,0.0,100,0.00,,SKC,0.00,VWS V13.01,2013-07-28 11:46:00,
2013-07-28 06:47:00,69.7,69.8,17.72,NNW,332,0.0,0.0,100,0.00,,SKC,0.00,VWS V13.01,2013-07-28 11:47:00,
2013-07-28 06:48:00,69.7,69.8,17.72,NNW,332,0.0,0.0,100,0.00,,SKC,0.00,VWS V13.01,2013-07-28 11:48:00,
2013-07-28 06:49:00,69.9,69.9,17.72,NNW,333,0.0,0.0,100,0.00,,SKC,0.00,VWS V13.01,2013-07-28 11:49:00,
2013-07-28 06:50:00,69.9,69.9,17.72,NNW,333,0.0,0.0,100,0.00,,SKC,0.00,VWS V13.01,2013-07-28 11:50:00,
2013-07-28 06:51:00,69.9,69.9,17.72,NNW,333,0.0,0.0,100,0.00,,SKC,0.00,VWS V13.01,2013-07-28 11:51:00,
2013-07-28 06:52:00,69.9,69.9,17.72,NNW,332,0.0,0.0,100,0.00,,SKC,0.00,VWS V13.01,2013-07-28 11:52:00,
2013-07-28 06:53:00,69.9,69.9,17.72,NNW,333,0.0,0.0,100,0.00,,SKC,0.00,VWS V13.01,2013-07-28 11:53:00,
2013-07-28 06:54:00,69.9,69.9,17.72,NNW,332,0.0,0.0,100,0.00,,SKC,0.00,VWS V13.01,2013-07-28 11:54:00,
2013-07-28 06:55:00,70.1,70.1,17.72,NNW,333,0.0,0.0,100,0.00,,SKC,0.00,VWS V13.01,2013-07-28 11:55:00,
2013-07-28 06:56:00,70.1,70.1,17.72,NNW,333,0.0,0.0,100,0.00,,SKC,0.00,VWS V13.01,2013-07-28 11:56:00,
2013-07-28 06:57:00,70.1,70.1,17.72,NNW,332,0.0,0.0,100,0.00,,SKC,0.00,VWS V13.01,2013-07-28 11:57:00,
2013-07-28 06:58:00,70.1,70.1,17.72,NNW,333,0.0,0.0,100,0.00,,SKC,0.00,VWS V13.01,2013-07-28 11:58:00,
2013-07-28 06:59:00,70.3,70.3,17.72,NNW,333,0.0,0.0,100,0.00,,SKC,0.00,VWS V13.01,2013-07-28 11:59:00,
2013-07-28 07:00:00,70.3,70.3,17.72,NNW,332,0.0,0.0,100,0.00,,SKC,0.00,VWS V13.01,2013-07-28 12:00:00,
2013-07-28 07:01:00,70.3,70.3,17.72,NNW,333,0.0,0.0,100,0.00,,SKC,0.00,VWS V13.01,2013-07-28 12:01:00,
2013-07-28 07:02:00,70.3,70.3,17.72,NNW,332,0.0,0.0,100,0.00,,SKC,0.00,VWS V13.01,2013-07-28 12:02:00,
2013-07-28 07:03:00,70.3,70.3,17.72,NNW,333,0.0,0.0,100,0.00,,SKC,0.00,VWS V13.01,2013-07-28 12:03:00,
2013-07-28 07:04:00,70.5,70.5,17.72,NW,308,0.0,2.2,100,0.00,,SKC,0.00,VWS V13.01,2013-07-28 12:04:00,
2013-07-28 07:05:00,70.5,70.5,17.72,NNW,335,0.0,0.0,100,0.00,,SKC,0.00,VWS V13.01,2013-07-28 12:05:00,
2013-07-28 07:06:00,70.5,70.5,17.72,NNW,335,0.0,0.0,100,0.00,,SKC,0.00,VWS V13.01,2013-07-28 12:06:00,
2013-07-28 07:07:00,70.5,70.5,17.72,NNW,335,0.0,0.0,100,0.00,,SKC,0.00,VWS V13.01,2013-07-28 12:07:00,
2013-07-28 07:08:00,70.5,70.5,17.72,WNW,298,3.1,3.1,100,0.00,,SKC,0.00,VWS V13.01,2013-07-28 12:08:00,
2013-07-28 07:09:00,70.6,70.6,17.72,WNW,298,0.0,3.1,100,0.00,,SKC,0.00,VWS V13.01,2013-07-28 12:09:00,
2013-07-28 07:10:00,70.6,70.6,17.72,WNW,298,0.0,0.0,100,0.00,,SKC,0.00,VWS V13.01,2013-07-28 12:10:00,
2013-07-28 07:11:00,70.6,70.6,17.72,WNW,298,0.0,0.0,100,0.00,,SKC,0.00,VWS V13.01,2013-07-28 12:11:00,
2013-07-28 07:12:00,70.6,70.6,17.72,WNW,298,0.0,0.0,100,0.00,,SKC,0.00,VWS V13.01,2013-07-28 12:12:00,
2013-07-28 07:13:00,70.6,70.6,17.72,WNW,298,0.0,0.0,100,0.00,,SKC,0.00,VWS V13.01,2013-07-28 12:13:00,
2013-07-28 07:14:00,70.6,70.6,17.72,WNW,298,0.0,0.0,100,0.00,,SKC,0.00,VWS V13.01,2013-07-28 12:14:00,
2013-07-28 07:15:00,70.6,70.6,17.72,WNW,298,0.0,0.0,100,0.00,,SKC,0.00,VWS V13.01,2013-07-28 12:15:00,
2013-07-28 07:16:00,70.8,70.8,17.72,WNW,298,0.0,0.0,100,0.00,,SKC,0.00,VWS V13.01,2013-07-28 12:16:00,
2013-07-28 07:17:00,70.8,70.8,17.72,WNW,298,0.0,0.0,100,0.00,,SKC,0.00,VWS V13.01,2013-07-28 12:17:00,
2013-07-28 07:18:00,70.8,70.8,17.72,WNW,298,0.0,0.0,100,0.00,,SKC,0.00,VWS V13.01,2013-07-28 12:18:00,
2013-07-28 07:19:00,70.8,70.8,17.72,WNW,298,0.0,0.0,100,0.00,,SKC,0.00,VWS V13.01,2013-07-28 12:19:00,
2013-07-28 07:20:00,71.0,71.0,17.72,WNW,298,0.0,0.0,100,0.00,,SKC,0.00,VWS V13.01,2013-07-28 12:20:00,
2013-07-28 07:21:00,71.0,71.0,17.72,WNW,298,0.0,0.0,100,0.00,,SKC,0.00,VWS V13.01,2013-07-28 12:21:00,
2013-07-28 07:22:00,71.0,71.0,17.72,NNW,336,3.6,3.6,100,0.00,,SKC,0.00,VWS V13.01,2013-07-28 12:22:00,
2013-07-28 07:23:00,71.0,71.0,17.72,WNW,291,3.6,3.6,100,0.00,,SKC,0.00,VWS V13.01,2013-07-28 12:23:00,
2013-07-28 07:24:00,71.0,71.0,17.72,WNW,282,0.0,3.6,100,0.00,,SKC,0.00,VWS V13.01,2013-07-28 12:24:00,
2013-07-28 07:25:00,71.0,71.0,17.72,NW,319,0.0,2.7,100,0.00,,SKC,0.00,VWS V13.01,2013-07-28 12:25:00,
2013-07-28 07:26:00,71.0,71.0,17.72,West,270,0.0,2.7,100,0.00,,SKC,0.00,VWS V13.01,2013-07-28 12:26:00,
2013-07-28 07:27:00,71.0,71.0,17.72,WSW,247,0.0,0.0,100,0.00,,SKC,0.00,VWS V13.01,2013-07-28 12:27:00,
2013-07-28 07:28:00,71.2,71.2,17.72,NNW,328,2.7,4.0,100,0.00,,SKC,0.00,VWS V13.01,2013-07-28 12:28:00,
2013-07-28 07:29:00,71.2,71.2,17.72,NNW,328,0.0,0.0,100,0.00,,SKC,0.00,VWS V13.01,2013-07-28 12:29:00,
2013-07-28 07:30:00,71.2,71.2,17.72,NNW,328,0.0,0.0,100,0.00,,SKC,0.00,VWS V13.01,2013-07-28 12:30:00,
2013-07-28 07:31:00,71.2,71.2,17.72,NNW,329,0.0,0.0,100,0.00,,SKC,0.00,VWS V13.01,2013-07-28 12:31:00,
2013-07-28 07:32:00,71.2,71.2,17.72,NNW,328,0.0,0.0,100,0.00,,SKC,0.00,VWS V13.01,2013-07-28 12:32:00,
2013-07-28 07:33:00,71.2,71.2,17.72,NNW,328,0.0,0.0,100,0.00,,SKC,0.00,VWS V13.01,2013-07-28 12:33:00,
2013-07-28 07:34:00,71.4,71.4,17.72,WSW,251,0.0,0.0,100,0.00,,SKC,0.00,VWS V13.01,2013-07-28 12:34:00,
2013-07-28 07:35:00,71.4,71.4,17.72,WSW,251,0.0,0.0,100,0.00,,SKC,0.00,VWS V13.01,2013-07-28 12:35:00,
2013-07-28 07:36:00,71.4,71.4,17.72,WSW,250,0.0,0.0,100,0.00,,SKC,0.00,VWS V13.01,2013-07-28 12:36:00,
2013-07-28 07:37:00,71.4,71.4,17.72,WSW,251,0.0,0.0,100,0.00,,SKC,0.00,VWS V13.01,2013-07-28 12:37:00,
2013-07-28 07:38:00,71.4,71.4,17.72,WSW,250,0.0,0.0,100,0.00,,SKC,0.00,VWS V13.01,2013-07-28 12:38:00,
2013-07-28 07:39:00,71.5,71.5,17.72,WSW,251,0.0,0.0,100,0.00,,SKC,0.00,VWS V13.01,2013-07-28 12:39:00,
2013-07-28 07:40:00,71.5,71.5,17.72,WSW,250,0.0,0.0,100,0.00,,SKC,0.00,VWS V13.01,2013-07-28 12:40:00,
2013-07-28 07:41:00,71.5,71.5,17.72,WSW,250,0.0,0.0,100,0.00,,SKC,0.00,VWS V13.01,2013-07-28 12:41:00,
2013-07-28 07:42:00,71.7,71.7,17.72,NW,318,0.0,0.0,100,0.00,,SKC,0.00,VWS V13.01,2013-07-28 12:42:00,
2013-07-28 07:43:00,71.7,71.7,17.72,NW,318,0.0,0.0,100,0.00,,SKC,0.00,VWS V13.01,2013-07-28 12:43:00,
2013-07-28 07:44:00,71.9,71.9,17.72,WSW,239,0.0,0.0,100,0.00,,SKC,0.00,VWS V13.01,2013-07-28 12:44:00,
2013-07-28 07:45:00,71.9,71.9,17.72,WSW,239,0.0,0.0,100,0.00,,SKC,0.00,VWS V13.01,2013-07-28 12:45:00,
2013-07-28 07:46:00,72.1,72.1,17.72,NNW,335,0.0,4.0,100,0.00,,SKC,0.00,VWS V13.01,2013-07-28 12:46:00,
2013-07-28 07:47:00,72.1,72.1,17.72,West,272,2.2,3.6,100,0.00,,SKC,0.00,VWS V13.01,2013-07-28 12:47:00,
2013-07-28 07:48:00,72.3,72.3,17.72,WNW,298,3.6,4.5,100,0.00,,SKC,0.00,VWS V13.01,2013-07-28 12:48:00,
2013-07-28 07:49:00,72.4,72.4,17.72,WSW,248,3.6,3.6,100,0.00,,SKC,0.00,VWS V13.01,2013-07-28 12:49:00,
2013-07-28 07:50:00,72.4,72.4,17.72,NW,311,2.2,3.6,100,0.00,,SKC,0.00,VWS V13.01,2013-07-28 12:50:00,
2013-07-28 07:51:00,72.4,72.4,17.72,NW,310,4.0,4.0,100,0.00,,SKC,0.00,VWS V13.01,2013-07-28 12:51:00,
2013-07-28 07:52:00,72.4,72.4,17.72,NNW,333,2.7,4.0,100,0.00,,SKC,0.00,VWS V13.01,2013-07-28 12:52:00,
2013-07-28 07:53:00,72.4,72.4,17.72,NNW,336,2.2,2.7,100,0.00,,SKC,0.00,VWS V13.01,2013-07-28 12:53:00,
2013-07-28 07:54:00,72.6,72.6,17.72,NNW,334,3.6,3.6,100,0.00,,SKC,0.00,VWS V13.01,2013-07-28 12:54:00,
2013-07-28 07:55:00,72.6,72.6,17.72,NNW,334,4.0,4.0,100,0.00,,SKC,0.00,VWS V13.01,2013-07-28 12:55:00,
2013-07-28 07:56:00,72.6,72.6,17.72,NNW,347,0.0,4.0,100,0.00,,SKC,0.00,VWS V13.01,2013-07-28 12:56:00,
2013-07-28 07:57:00,72.6,72.6,17.72,NW,326,3.1,3.1,100,0.00,,SKC,0.00,VWS V13.01,2013-07-28 12:57:00,
2013-07-28 07:58:00,72.6,72.6,17.72,North,359,3.1,3.1,100,0.00,,SKC,0.00,VWS V13.01,2013-07-28 12:58:00,
2013-07-28 07:59:00,72.8,72.8,17.72,North,359,2.2,4.0,100,0.00,,SKC,0.00,VWS V13.01,2013-07-28 12:59:00,
2013-07-28 08:00:00,72.8,72.8,17.72,WSW,251,2.2,4.0,100,0.00,,SKC,0.00,VWS V13.01,2013-07-28 13:00:00,
2013-07-28 08:01:00,73.0,73.0,17.72,WNW,289,6.3,6.3,100,0.00,,SKC,0.00,VWS V13.01,2013-07-28 13:01:00,
2013-07-28 08:02:00,73.2,73.2,17.72,NW,324,2.7,6.3,100,0.00,,SKC,0.00,VWS V13.01,2013-07-28 13:02:00,
2013-07-28 08:03:00,73.3,73.3,17.72,West,278,2.2,3.6,100,0.00,,SKC,0.00,VWS V13.01,2013-07-28 13:03:00,
2013-07-28 08:04:00,73.3,73.3,17.72,NW,318,3.1,4.0,100,0.00,,SKC,0.00,VWS V13.01,2013-07-28 13:04:00,
2013-07-28 08:05:00,73.5,73.5,17.72,NW,318,3.1,4.0,100,0.00,,SKC,0.00,VWS V13.01,2013-07-28 13:05:00,
2013-07-28 08:06:00,73.5,73.5,17.72,NW,306,0.0,6.3,100,0.00,,SKC,0.00,VWS V13.01,2013-07-28 13:06:00,
2013-07-28 08:07:00,73.7,73.7,17.72,NW,324,3.6,3.6,100,0.00,,SKC,0.00,VWS V13.01,2013-07-28 13:07:00,
2013-07-28 08:08:00,73.7,73.7,17.72,WSW,247,6.3,6.3,100,0.00,,SKC,0.00,VWS V13.01,2013-07-28 13:08:00,
2013-07-28 08:09:00,73.7,73.7,17.72,NW,324,0.0,3.6,100,0.00,,SKC,0.00,VWS V13.01,2013-07-28 13:09:00,
2013-07-28 08:10:00,73.9,73.9,17.72,NW,314,4.0,4.0,100,0.00,,SKC,0.00,VWS V13.01,2013-07-28 13:10:00,
2013-07-28 08:11:00,73.9,73.9,17.72,NW,326,0.0,4.0,100,0.00,,SKC,0.00,VWS V13.01,2013-07-28 13:11:00,
2013-07-28 08:12:00,73.9,73.9,17.72,North,8,3.6,3.6,100,0.00,,SKC,0.00,VWS V13.01,2013-07-28 13:12:00,
2013-07-28 08:13:00,73.9,73.9,17.72,NNW,344,2.2,5.4,100,0.00,,SKC,0.00,VWS V13.01,2013-07-28 13:13:00,
2013-07-28 08:14:00,73.9,73.9,17.72,North,6,2.7,3.1,100,0.00,,SKC,0.00,VWS V13.01,2013-07-28 13:14:00,
2013-07-28 08:15:00,73.9,73.9,17.72,North,5,0.0,3.1,100,0.00,,SKC,0.00,VWS V13.01,2013-07-28 13:15:00,
2013-07-28 08:16:00,73.9,73.9,17.72,NNW,337,0.0,0.0,100,0.00,,SKC,0.00,VWS V13.01,2013-07-28 13:16:00,
2013-07-28 08:17:00,73.9,73.9,17.72,NNE,26,0.0,0.0,100,0.00,,SKC,0.00,VWS V13.01,2013-07-28 13:17:00,
2013-07-28 08:18:00,73.9,73.9,17.72,NNE,26,0.0,0.0,100,0.00,,SKC,0.00,VWS V13.01,2013-07-28 13:18:00,
2013-07-28 08:19:00,74.1,74.1,17.72,North,355,3.1,3.1,100,0.00,,SKC,0.00,VWS V13.01,2013-07-28 13:19:00,
2013-07-28 08:20:00,74.1,74.1,17.72,NW,321,3.1,3.1,100,0.00,,SKC,0.00,VWS V13.01,2013-07-28 13:20:00,
2013-07-28 08:21:00,74.1,74.1,17.72,NW,313,4.5,4.9,100,0.00,,SKC,0.00,VWS V13.01,2013-07-28 13:21:00,
2013-07-28 08:22:00,74.2,74.2,17.72,North,353,2.7,4.9,100,0.00,,SKC,0.00,VWS V13.01,2013-07-28 13:22:00,
2013-07-28 08:23:00,74.2,74.2,17.72,NNW,338,5.4,5.4,100,0.00,,SKC,0.00,VWS V13.01,2013-07-28 13:23:00,
2013-07-28 08:24:00,74.4,74.4,17.72,NNW,348,4.0,4.0,100,0.00,,SKC,0.00,VWS V13.01,2013-07-28 13:24:00,
2013-07-28 08:25:00,74.4,74.4,17.72,NW,318,4.0,4.0,100,0.00,,SKC,0.00,VWS V13.01,2013-07-28 13:25:00,
2013-07-28 08:26:00,74.4,74.4,17.72,NNW,327,4.9,5.8,100,0.00,,SKC,0.00,VWS V13.01,2013-07-28 13:26:00,
2013-07-28 08:27:00,74.4,74.4,17.72,NW,317,0.0,4.9,100,0.00,,SKC,0.00,VWS V13.01,2013-07-28 13:27:00,
2013-07-28 08:28:00,74.6,74.6,17.72,NW,315,2.7,3.6,100,0.00,,SKC,0.00,VWS V13.01,2013-07-28 13:28:00,
2013-07-28 08:29:00,74.8,74.8,17.72,NNE,29,4.0,4.0,100,0.00,,SKC,0.00,VWS V13.01,2013-07-28 13:29:00,
2013-07-28 08:30:00,74.8,74.8,17.72,North,10,5.8,5.8,100,0.00,,SKC,0.00,VWS V13.01,2013-07-28 13:30:00,
2013-07-28 08:31:00,75.1,75.1,17.72,SW,235,2.7,5.8,100,0.00,,SKC,0.00,VWS V13.01,2013-07-28 13:31:00,
2013-07-28 08:32:00,75.1,75.1,17.72,North,352,2.7,2.7,100,0.00,,SKC,0.00,VWS V13.01,2013-07-28 13:32:00,
2013-07-28 08:33:00,75.3,75.3,17.72,NNE,13,2.7,2.7,100,0.00,,SKC,0.00,VWS V13.01,2013-07-28 13:33:00,
2013-07-28 08:34:00,75.7,75.7,17.72,SW,235,0.0,0.0,100,0.00,,SKC,0.00,VWS V13.01,2013-07-28 13:34:00,
2013-07-28 08:35:00,75.7,75.7,17.72,NNW,335,0.0,0.0,100,0.00,,SKC,0.00,VWS V13.01,2013-07-28 13:35:00,
2013-07-28 08:36:00,76.0,76.1,17.72,NNW,331,4.9,5.4,100,0.00,,SKC,0.00,VWS V13.01,2013-07-28 13:36:00,
2013-07-28 08:37:00,76.0,76.1,17.72,WSW,256,3.1,4.9,100,0.00,,SKC,0.00,VWS V13.01,2013-07-28 13:37:00,
2013-07-28 08:38:00,76.4,76.4,17.72,NW,323,3.1,3.6,100,0.00,,SKC,0.00,VWS V13.01,2013-07-28 13:38:00,
2013-07-28 08:39:00,76.9,76.9,17.72,NNE,27,0.0,3.6,100,0.00,,SKC,0.00,VWS V13.01,2013-07-28 13:39:00,
2013-07-28 08:40:00,76.9,76.9,17.72,WSW,237,2.7,3.6,100,0.00,,SKC,0.00,VWS V13.01,2013-07-28 13:40:00,
2013-07-28 08:41:00,77.1,77.1,17.72,North,353,5.4,7.6,100,0.00,,SKC,0.00,VWS V13.01,2013-07-28 13:41:00,
2013-07-28 08:42:00,77.3,77.3,17.72,North,354,2.2,5.4,100,0.00,,SKC,0.00,VWS V13.01,2013-07-28 13:42:00,
2013-07-28 08:43:00,77.5,77.5,17.72,West,259,3.1,3.6,100,0.00,,SKC,0.00,VWS V13.01,2013-07-28 13:43:00,
2013-07-28 08:44:00,77.7,77.7,17.72,NNW,331,7.6,7.6,100,0.00,,SKC,0.00,VWS V13.01,2013-07-28 13:44:00,
2013-07-28 08:45:00,77.8,77.8,17.72,WSW,243,3.1,7.6,100,0.00,,SKC,0.00,VWS V13.01,2013-07-28 13:45:00,
2013-07-28 08:46:00,77.8,77.8,17.72,WSW,243,0.0,3.1,100,0.00,,SKC,0.00,VWS V13.01,2013-07-28 13:46:00,
2013-07-28 08:47:00,78.2,77.6,17.72,NNE,22,0.0,0.0,98,0.00,,SKC,0.00,VWS V13.01,2013-07-28 13:47:00,
2013-07-28 08:48:00,78.4,77.8,17.72,NE,42,2.2,3.1,98,0.00,,SKC,0.00,VWS V13.01,2013-07-28 13:48:00,
2013-07-28 08:49:00,78.4,77.8,17.72,SW,236,0.0,0.0,98,0.00,,SKC,0.00,VWS V13.01,2013-07-28 13:49:00,
2013-07-28 08:50:00,78.4,77.8,17.72,SW,233,0.0,0.0,98,0.00,,SKC,0.00,VWS V13.01,2013-07-28 13:50:00,
2013-07-28 08:51:00,78.4,77.8,17.72,SW,220,0.0,0.0,98,0.00,,SKC,0.00,VWS V13.01,2013-07-28 13:51:00,
2013-07-28 08:52:00,78.6,77.9,17.72,North,352,3.1,5.4,98,0.00,,SKC,0.00,VWS V13.01,2013-07-28 13:52:00,
2013-07-28 08:53:00,78.7,78.1,17.72,West,272,2.2,3.1,98,0.00,,SKC,0.00,VWS V13.01,2013-07-28 13:53:00,
2013-07-28 08:54:00,78.7,78.1,17.72,West,278,6.3,6.3,98,0.00,,SKC,0.00,VWS V13.01,2013-07-28 13:54:00,
2013-07-28 08:55:00,78.6,75.1,17.72,NNW,335,2.7,6.3,89,0.00,,SKC,0.00,VWS V13.01,2013-07-28 13:55:00,
2013-07-28 08:56:00,78.6,76.1,17.72,NNW,335,0.0,2.7,92,0.00,,SKC,0.00,VWS V13.01,2013-07-28 13:56:00,
2013-07-28 08:57:00,78.6,75.1,17.72,North,357,5.8,5.8,89,0.00,,SKC,0.00,VWS V13.01,2013-07-28 13:57:00,
2013-07-28 08:58:00,78.6,74.0,17.72,WNW,303,3.1,5.8,86,0.00,,SKC,0.00,VWS V13.01,2013-07-28 13:58:00,
2013-07-28 08:59:00,78.6,76.1,17.72,WNW,288,2.2,2.2,92,0.00,,SKC,0.00,VWS V13.01,2013-07-28 13:59:00,
2013-07-28 09:00:00,78.4,76.8,17.72,WNW,287,3.1,5.4,95,0.00,,SKC,0.00,VWS V13.01,2013-07-28 14:00:00,
2013-07-28 09:01:00,78.4,77.8,17.72,NW,308,5.4,5.4,98,0.00,,SKC,0.00,VWS V13.01,2013-07-28 14:01:00,
2013-07-28 09:02:00,78.4,76.8,17.72,NW,314,5.4,5.4,95,0.00,,SKC,0.00,VWS V13.01,2013-07-28 14:02:00,
2013-07-28 09:03:00,78.6,77.0,17.72,NNW,345,5.8,5.8,95,0.00,,SKC,0.00,VWS V13.01,2013-07-28 14:03:00,
2013-07-28 09:04:00,78.7,77.2,17.72,West,278,4.0,5.4,95,0.00,,SKC,0.00,VWS V13.01,2013-07-28 14:04:00,
2013-07-28 09:05:00,78.7,77.2,17.72,West,265,3.6,5.8,95,0.00,,SKC,0.00,VWS V13.01,2013-07-28 14:05:00,
2013-07-28 09:06:00,78.9,78.3,17.72,WSW,245,3.6,4.0,98,0.00,,SKC,0.00,VWS V13.01,2013-07-28 14:06:00,
2013-07-28 09:07:00,79.1,78.5,17.72,SW,224,2.7,4.0,98,0.00,,SKC,0.00,VWS V13.01,2013-07-28 14:07:00,
2013-07-28 09:08:00,79.3,74.7,17.72,North,359,2.2,2.7,86,0.00,,SKC,0.00,VWS V13.01,2013-07-28 14:08:00,
2013-07-28 09:09:00,79.6,74.0,17.72,NE,35,3.6,4.9,83,0.00,,SKC,0.00,VWS V13.01,2013-07-28 14:09:00,
2013-07-28 09:10:00,79.5,71.6,17.72,WNW,290,4.0,4.9,77,0.00,,SKC,0.00,VWS V13.01,2013-07-28 14:10:00,
2013-07-28 09:11:00,79.6,72.9,17.72,North,5,2.7,5.4,80,0.00,,SKC,0.00,VWS V13.01,2013-07-28 14:11:00,
2013-07-28 09:12:00,79.6,74.0,17.72,NNW,337,3.6,3.6,83,0.00,,SKC,0.00,VWS V13.01,2013-07-28 14:12:00,
2013-07-28 09:13:00,79.5,74.9,17.72,North,350,3.1,6.3,86,0.00,,SKC,0.00,VWS V13.01,2013-07-28 14:13:00,
2013-07-28 09:14:00,79.6,75.1,17.72,West,280,3.1,4.9,86,0.00,,SKC,0.00,VWS V13.01,2013-07-28 14:14:00,
2013-07-28 09:15:00,79.6,75.1,17.72,NW,326,4.9,5.4,86,0.00,,SKC,0.00,VWS V13.01,2013-07-28 14:15:00,
2013-07-28 09:16:00,80.0,75.4,17.72,North,5,0.0,4.9,86,0.00,,SKC,0.00,VWS V13.01,2013-07-28 14:16:00,
2013-07-28 09:17:00,80.2,75.6,17.72,WSW,247,0.0,0.0,86,0.00,,SKC,0.00,VWS V13.01,2013-07-28 14:17:00,
2013-07-28 09:18:00,80.2,73.5,17.72,NNE,29,0.0,0.0,80,0.00,,SKC,0.00,VWS V13.01,2013-07-28 14:18:00,
2013-07-28 09:19:00,80.0,72.2,17.72,NNW,334,0.0,0.0,77,0.00,,SKC,0.00,VWS V13.01,2013-07-28 14:19:00,
2013-07-28 09:20:00,80.0,72.2,17.72,NW,312,4.9,4.9,77,0.00,,SKC,0.00,VWS V13.01,2013-07-28 14:20:00,
2013-07-28 09:21:00,80.0,72.2,17.72,NW,314,3.1,5.4,77,0.00,,SKC,0.00,VWS V13.01,2013-07-28 14:21:00,
2013-07-28 09:22:00,80.0,72.2,17.72,NW,312,3.6,3.6,77,0.00,,SKC,0.00,VWS V13.01,2013-07-28 14:22:00,
2013-07-28 09:23:00,79.8,74.2,17.72,NNW,336,0.0,4.9,83,0.00,,SKC,0.00,VWS V13.01,2013-07-28 14:23:00,
2013-07-28 09:24:00,79.6,74.0,17.72,NW,321,4.0,4.9,83,0.00,,SKC,0.00,VWS V13.01,2013-07-28 14:24:00,
2013-07-28 09:25:00,79.6,74.0,17.72,NW,306,5.8,5.8,83,0.00,,SKC,0.00,VWS V13.01,2013-07-28 14:25:00,
2013-07-28 09:26:00,79.6,75.1,17.72,NNW,336,4.0,5.8,86,0.00,,SKC,0.00,VWS V13.01,2013-07-28 14:26:00,
2013-07-28 09:27:00,79.5,73.8,17.72,NW,312,5.4,5.4,83,0.00,,SKC,0.00,VWS V13.01,2013-07-28 14:27:00,
2013-07-28 09:28:00,79.5,74.9,17.72,NE,37,4.5,5.4,86,0.00,,SKC,0.00,VWS V13.01,2013-07-28 14:28:00,
2013-07-28 09:29:00,79.1,74.6,17.72,NNW,339,4.0,4.0,86,0.00,,SKC,0.00,VWS V13.01,2013-07-28 14:29:00,
2013-07-28 09:30:00,78.9,75.4,17.72,NNW,348,3.6,4.0,89,0.00,,SKC,0.00,VWS V13.01,2013-07-28 14:30:00,
2013-07-28 09:31:00,78.9,76.4,17.72,NNE,26,3.6,4.0,92,0.00,,SKC,0.00,VWS V13.01,2013-07-28 14:31:00,
2013-07-28 09:32:00,78.9,74.4,17.72,NNW,333,7.2,7.2,86,0.00,,SKC,0.00,VWS V13.01,2013-07-28 14:32:00,
2013-07-28 09:33:00,78.9,75.4,17.72,WNW,297,3.1,7.2,89,0.00,,SKC,0.00,VWS V13.01,2013-07-28 14:33:00,
2013-07-28 09:34:00,79.3,78.7,17.72,WSW,250,3.6,3.6,98,0.00,,SKC,0.00,VWS V13.01,2013-07-28 14:34:00,
2013-07-28 09:35:00,79.5,77.9,17.72,NNW,332,8.3,8.3,95,0.00,,SKC,0.00,VWS V13.01,2013-07-28 14:35:00,
2013-07-28 09:36:00,79.6,79.0,17.72,WSW,246,3.6,8.3,98,0.00,,SKC,0.00,VWS V13.01,2013-07-28 14:36:00,
2013-07-28 09:37:00,79.6,75.1,17.72,NW,321,2.2,4.9,86,0.00,,SKC,0.00,VWS V13.01,2013-07-28 14:37:00,
2013-07-28 09:38:00,80.2,76.7,17.72,SW,233,4.0,4.0,89,0.00,,SKC,0.00,VWS V13.01,2013-07-28 14:38:00,
2013-07-28 09:39:00,80.5,72.7,17.72,West,265,2.7,2.7,77,0.00,,SKC,0.00,VWS V13.01,2013-07-28 14:39:00,
2013-07-28 09:40:00,80.5,72.7,17.72,SW,236,4.0,4.0,77,0.00,,SKC,0.00,VWS V13.01,2013-07-28 14:40:00,
2013-07-28 09:41:00,80.7,74.0,17.72,NNE,23,2.7,5.4,80,0.00,,SKC,0.00,VWS V13.01,2013-07-28 14:41:00,
2013-07-28 09:42:00,80.9,74.2,17.72,NNW,331,3.1,4.0,80,0.00,,SKC,0.00,VWS V13.01,2013-07-28 14:42:00,
2013-07-28 09:43:00,80.9,74.2,17.72,North,357,3.6,5.4,80,0.00,,SKC,0.00,VWS V13.01,2013-07-28 14:43:00,
2013-07-28 09:44:00,80.7,72.8,17.72,NNW,341,3.1,6.3,77,0.00,,SKC,0.00,VWS V13.01,2013-07-28 14:44:00,
2013-07-28 09:45:00,80.7,74.0,17.72,NNE,24,5.8,6.3,80,0.00,,SKC,0.00,VWS V13.01,2013-07-28 14:45:00,
2013-07-28 09:46:00,80.5,72.7,17.72,SW,235,2.2,5.8,77,0.00,,SKC,0.00,VWS V13.01,2013-07-28 14:46:00,
2013-07-28 09:47:00,80.4,72.5,17.72,West,267,4.0,5.4,77,0.00,,SKC,0.00,VWS V13.01,2013-07-28 14:47:00,
2013-07-28 09:48:00,80.2,74.6,17.72,NW,324,4.0,4.9,83,0.00,,SKC,0.00,VWS V13.01,2013-07-28 14:48:00,
2013-07-28 09:49:00,80.4,74.7,17.72,West,274,3.1,3.6,83,0.00,,SKC,0.00,VWS V13.01,2013-07-28 14:49:00,
2013-07-28 09:50:00,80.4,75.8,17.72,West,273,4.9,4.9,86,0.00,,SKC,0.00,VWS V13.01,2013-07-28 14:50:00,
2013-07-28 09:51:00,80.5,77.0,17.72,NW,314,6.3,8.3,89,0.00,,SKC,0.00,VWS V13.01,2013-07-28 14:51:00,
2013-07-28 09:52:00,80.7,75.1,17.72,SW,222,0.0,6.3,83,0.00,,SKC,0.00,VWS V13.01,2013-07-28 14:52:00,
2013-07-28 09:53:00,80.9,77.4,17.72,WNW,283,4.0,4.0,89,0.00,,SKC,0.00,VWS V13.01,2013-07-28 14:53:00,
2013-07-28 09:54:00,81.3,77.7,17.72,NW,316,6.3,7.2,89,0.00,,SKC,0.00,VWS V13.01,2013-07-28 14:54:00,
2013-07-28 09:55:00,81.4,77.9,17.72,North,349,5.4,8.3,89,0.00,,SKC,0.00,VWS V13.01,2013-07-28 14:55:00,
2013-07-28 09:56:00,81.6,72.5,17.72,WNW,301,4.0,5.4,74,0.00,,SKC,0.00,VWS V13.01,2013-07-28 14:56:00,
2013-07-28 09:57:00,81.8,73.9,17.72,NNW,335,6.3,6.3,77,0.00,,SKC,0.00,VWS V13.01,2013-07-28 14:57:00,
2013-07-28 09:58:00,81.8,72.7,17.72,NW,325,3.6,6.3,74,0.00,,SKC,0.00,VWS V13.01,2013-07-28 14:58:00,
2013-07-28 09:59:00,81.8,72.7,17.72,NNW,341,5.8,7.6,74,0.00,,SKC,0.00,VWS V13.01,2013-07-28 14:59:00,
2013-07-28 10:00:00,82.0,72.9,17.72,NNE,25,3.1,7.6,74,0.00,,SKC,0.00,VWS V13.01,2013-07-28 15:00:00,
2013-07-28 10:01:00,82.0,72.9,17.72,NNW,345,5.8,5.8,74,0.00,,SKC,0.00,VWS V13.01,2013-07-28 15:01:00,
2013-07-28 10:02:00,82.0,71.7,17.72,WNW,284,4.5,6.3,71,0.00,,SKC,0.00,VWS V13.01,2013-07-28 15:02:00,
2013-07-28 10:03:00,81.8,71.5,17.72,NNW,331,6.3,6.3,71,0.00,,SKC,0.00,VWS V13.01,2013-07-28 15:03:00,
2013-07-28 10:04:00,82.0,70.4,17.72,NW,308,4.0,4.0,68,0.00,,SKC,0.00,VWS V13.01,2013-07-28 15:04:00,
2013-07-28 10:05:00,82.0,70.4,17.72,North,360,5.4,8.1,68,0.00,,SKC,0.00,VWS V13.01,2013-07-28 15:05:00,
2013-07-28 10:06:00,82.0,70.4,17.72,NNW,334,3.6,5.4,68,0.00,,SKC,0.00,VWS V13.01,2013-07-28 15:06:00,
2013-07-28 10:07:00,82.0,71.7,17.72,NNE,17,6.3,7.6,71,0.00,,SKC,0.00,VWS V13.01,2013-07-28 15:07:00,
2013-07-28 10:08:00,81.8,71.5,17.72,North,357,5.8,6.3,71,0.00,,SKC,0.00,VWS V13.01,2013-07-28 15:08:00,
2013-07-28 10:09:00,81.8,70.2,17.72,North,8,4.9,4.9,68,0.00,,SKC,0.00,VWS V13.01,2013-07-28 15:09:00,
2013-07-28 10:10:00,82.0,71.7,17.72,NW,309,5.8,5.8,71,0.00,,SKC,0.00,VWS V13.01,2013-07-28 15:10:00,
2013-07-28 10:11:00,82.2,70.6,17.72,West,278,3.6,8.3,68,0.00,,SKC,0.00,VWS V13.01,2013-07-28 15:11:00,
2013-07-28 10:12:00,82.2,71.8,17.72,NNW,328,6.3,6.3,71,0.00,,SKC,0.00,VWS V13.01,2013-07-28 15:12:00,
2013-07-28 10:13:00,82.2,71.8,17.72,NW,326,0.0,6.3,71,0.00,,SKC,0.00,VWS V13.01,2013-07-28 15:13:00,
2013-07-28 10:14:00,82.3,72.0,17.72,WSW,243,3.1,3.1,71,0.00,,SKC,0.00,VWS V13.01,2013-07-28 15:14:00,
2013-07-28 10:15:00,82.3,72.0,17.72,NW,309,7.6,7.6,71,0.00,,SKC,0.00,VWS V13.01,2013-07-28 15:15:00,
2013-07-28 10:16:00,82.3,70.7,17.72,SW,231,8.1,8.1,68,0.00,,SKC,0.00,VWS V13.01,2013-07-28 15:16:00,
2013-07-28 10:17:00,82.7,72.3,17.72,North,1,4.9,8.1,71,0.00,,SKC,0.00,VWS V13.01,2013-07-28 15:17:00,
2013-07-28 10:18:00,82.7,71.1,17.72,West,263,6.3,6.7,68,0.00,,SKC,0.00,VWS V13.01,2013-07-28 15:18:00,
2013-07-28 10:19:00,82.7,71.1,17.72,NW,311,3.1,3.6,68,0.00,,SKC,0.00,VWS V13.01,2013-07-28 15:19:00,
2013-07-28 10:20:00,82.9,71.2,17.72,WSW,243,5.8,5.8,68,0.00,,SKC,0.00,VWS V13.01,2013-07-28 15:20:00,
2013-07-28 10:21:00,82.9,71.2,17.72,NW,315,3.6,7.6,68,0.00,,SKC,0.00,VWS V13.01,2013-07-28 15:21:00,
2013-07-28 10:22:00,82.9,71.2,17.72,West,267,4.0,7.6,68,0.00,,SKC,0.00,VWS V13.01,2013-07-28 15:22:00,
2013-07-28 10:23:00,82.9,71.2,17.72,NW,307,3.1,4.0,68,0.00,,SKC,0.00,VWS V13.01,2013-07-28 15:23:00,
2013-07-28 10:24:00,82.9,71.2,17.72,North,3,4.9,4.9,68,0.00,,SKC,0.00,VWS V13.01,2013-07-28 15:24:00,
2013-07-28 10:25:00,82.9,71.2,17.72,NNW,329,3.6,4.9,68,0.00,,SKC,0.00,VWS V13.01,2013-07-28 15:25:00,
2013-07-28 10:26:00,82.9,71.2,17.72,West,262,4.9,8.1,68,0.00,,SKC,0.00,VWS V13.01,2013-07-28 15:26:00,
2013-07-28 10:27:00,82.9,71.2,17.72,NW,324,5.4,5.4,68,0.00,,SKC,0.00,VWS V13.01,2013-07-28 15:27:00,
2013-07-28 10:28:00,82.9,71.2,17.72,NW,325,8.3,10.1,68,0.00,,SKC,0.00,VWS V13.01,2013-07-28 15:28:00,
2013-07-28 10:29:00,82.7,71.1,17.72,NNE,13,2.7,2.7,68,0.00,,SKC,0.00,VWS V13.01,2013-07-28 15:29:00,
2013-07-28 10:30:00,82.7,71.1,17.72,NW,326,6.3,6.3,68,0.00,,SKC,0.00,VWS V13.01,2013-07-28 15:30:00,
2013-07-28 10:31:00,82.7,69.8,17.72,NNW,337,2.7,6.3,65,0.00,,SKC,0.00,VWS V13.01,2013-07-28 15:31:00,
2013-07-28 10:32:00,82.9,71.2,17.72,NW,310,7.6,8.1,68,0.00,,SKC,0.00,VWS V13.01,2013-07-28 15:32:00,
2013-07-28 10:33:00,82.9,71.2,17.72,WSW,256,0.0,7.6,68,0.00,,SKC,0.00,VWS V13.01,2013-07-28 15:33:00,
2013-07-28 10:34:00,83.1,70.1,17.72,NW,326,4.9,4.9,65,0.00,,SKC,0.00,VWS V13.01,2013-07-28 15:34:00,
2013-07-28 10:35:00,83.1,70.1,17.72,North,10,2.7,4.9,65,0.00,,SKC,0.00,VWS V13.01,2013-07-28 15:35:00,
2013-07-28 10:36:00,83.1,70.1,17.72,NNW,328,8.1,8.1,65,0.00,,SKC,0.00,VWS V13.01,2013-07-28 15:36:00,
2013-07-28 10:37:00,82.9,69.9,17.72,NE,37,5.8,8.1,65,0.00,,SKC,0.00,VWS V13.01,2013-07-28 15:37:00,
2013-07-28 10:38:00,83.1,71.4,17.72,NNW,333,4.9,5.8,68,0.00,,SKC,0.00,VWS V13.01,2013-07-28 15:38:00,
2013-07-28 10:39:00,82.9,71.2,17.72,West,269,2.7,3.1,68,0.00,,SKC,0.00,VWS V13.01,2013-07-28 15:39:00,
2013-07-28 10:40:00,83.1,71.4,17.72,WSW,251,6.7,6.7,68,0.00,,SKC,0.00,VWS V13.01,2013-07-28 15:40:00,
2013-07-28 10:41:00,83.1,70.1,17.72,WNW,283,3.1,6.7,65,0.00,,SKC,0.00,VWS V13.01,2013-07-28 15:41:00,
2013-07-28 10:42:00,83.1,70.1,17.72,West,262,6.3,6.3,65,0.00,,SKC,0.00,VWS V13.01,2013-07-28 15:42:00,
2013-07-28 10:44:00,83.2,70.3,17.72,NNW,344,4.0,6.3,65,0.00,,SKC,0.00,VWS V13.01,2013-07-28 15:44:00,
2013-07-28 10:45:00,83.2,71.6,17.72,WSW,246,2.7,6.3,68,0.00,,SKC,0.00,VWS V13.01,2013-07-28 15:45:00,
2013-07-28 10:47:00,83.2,70.3,17.72,NNW,340,3.1,6.3,65,0.00,,SKC,0.00,VWS V13.01,2013-07-28 15:47:00,
2013-07-28 10:48:00,83.2,70.3,17.72,NNW,331,5.8,8.3,65,0.00,,SKC,0.00,VWS V13.01,2013-07-28 15:48:00,
2013-07-28 10:49:00,83.6,70.6,17.72,NW,304,3.1,6.3,65,0.00,,SKC,0.00,VWS V13.01,2013-07-28 15:49:00,
2013-07-28 10:50:00,83.6,70.6,17.72,NNW,339,8.1,8.1,65,0.00,,SKC,0.00,VWS V13.01,2013-07-28 15:50:00,
2013-07-28 10:51:00,83.4,70.4,17.72,NNW,344,4.0,8.1,65,0.00,,SKC,0.00,VWS V13.01,2013-07-28 15:51:00,
2013-07-28 10:52:00,83.4,70.4,17.72,NW,321,7.6,7.6,65,0.00,,SKC,0.00,VWS V13.01,2013-07-28 15:52:00,
2013-07-28 10:53:00,83.2,70.3,17.72,SW,227,4.0,7.6,65,0.00,,SKC,0.00,VWS V13.01,2013-07-28 15:53:00,
2013-07-28 10:54:00,83.1,70.1,17.72,WSW,246,4.9,4.9,65,0.00,,SKC,0.00,VWS V13.01,2013-07-28 15:54:00,
2013-07-28 10:55:00,83.1,70.1,17.72,NNE,21,3.1,5.4,65,0.00,,SKC,0.00,VWS V13.01,2013-07-28 15:55:00,
2013-07-28 10:56:00,82.9,69.9,17.72,North,358,5.4,10.1,65,0.00,,SKC,0.00,VWS V13.01,2013-07-28 15:56:00,
2013-07-28 10:57:00,82.7,69.8,17.72,NW,311,8.1,8.1,65,0.00,,SKC,0.00,VWS V13.01,2013-07-28 15:57:00,
2013-07-28 10:58:00,83.1,70.1,17.72,North,357,3.6,8.1,65,0.00,,SKC,0.00,VWS V13.01,2013-07-28 15:58:00,
2013-07-28 10:59:00,83.1,70.1,17.72,NW,325,2.7,4.0,65,0.00,,SKC,0.00,VWS V13.01,2013-07-28 15:59:00,
2013-07-28 11:00:00,83.1,70.1,17.72,WNW,299,2.2,4.0,65,0.00,,SKC,0.00,VWS V13.01,2013-07-28 16:00:00,
2013-07-28 11:01:00,83.1,71.4,17.72,WSW,255,12.3,12.3,68,0.00,,SKC,0.00,VWS V13.01,2013-07-28 16:01:00,
2013-07-28 11:02:00,82.9,69.9,17.72,West,263,3.1,12.3,65,0.00,,SKC,0.00,VWS V13.01,2013-07-28 16:02:00,
2013-07-28 11:03:00,82.7,69.8,17.72,North,349,6.3,6.3,65,0.00,,SKC,0.00,VWS V13.01,2013-07-28 16:03:00,
2013-07-28 11:04:00,82.5,69.6,17.72,NNW,338,5.4,5.4,65,0.00,,SKC,0.00,VWS V13.01,2013-07-28 16:04:00,
2013-07-28 11:05:00,82.5,69.6,17.72,SW,217,5.4,5.4,65,0.00,,SKC,0.00,VWS V13.01,2013-07-28 16:05:00,
2013-07-28 11:06:00,82.3,69.4,17.72,NNW,345,4.0,5.4,65,0.00,,SKC,0.00,VWS V13.01,2013-07-28 16:06:00,
2013-07-28 11:07:00,82.3,69.4,17.72,NNE,18,4.9,8.1,65,0.00,,SKC,0.00,VWS V13.01,2013-07-28 16:07:00,
2013-07-28 11:08:00,82.3,69.4,17.72,NW,313,7.2,7.2,65,0.00,,SKC,0.00,VWS V13.01,2013-07-28 16:08:00,
2013-07-28 11:09:00,82.7,71.1,17.72,NNW,335,6.3,6.3,68,0.00,,SKC,0.00,VWS V13.01,2013-07-28 16:09:00,
2013-07-28 11:10:00,82.7,69.8,17.72,NE,46,5.4,6.3,65,0.00,,SKC,0.00,VWS V13.01,2013-07-28 16:10:00,
2013-07-28 11:11:00,82.7,69.8,17.72,West,278,4.9,5.4,65,0.00,,SKC,0.00,VWS V13.01,2013-07-28 16:11:00,
2013-07-28 11:12:00,82.9,71.2,17.72,WSW,251,3.6,5.4,68,0.00,,SKC,0.00,VWS V13.01,2013-07-28 16:12:00,
2013-07-28 11:13:00,83.1,70.1,17.72,NNW,330,0.0,3.6,65,0.00,,SKC,0.00,VWS V13.01,2013-07-28 16:13:00,
2013-07-28 11:14:00,83.4,70.4,17.72,NW,320,4.9,8.7,65,0.00,,SKC,0.00,VWS V13.01,2013-07-28 16:14:00,
2013-07-28 11:15:00,83.6,70.6,17.72,North,349,6.3,8.7,65,0.00,,SKC,0.00,VWS V13.01,2013-07-28 16:15:00,
2013-07-28 11:16:00,84.0,70.9,17.72,WNW,284,3.6,6.3,65,0.00,,SKC,0.00,VWS V13.01,2013-07-28 16:16:00,
2013-07-28 11:17:00,83.8,70.8,17.72,West,270,0.0,3.6,65,0.00,,SKC,0.00,VWS V13.01,2013-07-28 16:17:00,
2013-07-28 11:18:00,83.6,70.6,17.72,North,6,5.8,5.8,65,0.00,,SKC,0.00,VWS V13.01,2013-07-28 16:18:00,
2013-07-28 11:19:00,83.6,70.6,17.72,NW,319,8.3,8.3,65,0.00,,SKC,0.00,VWS V13.01,2013-07-28 16:19:00,
2013-07-28 11:20:00,83.4,70.4,17.72,WNW,300,3.1,8.7,65,0.00,,SKC,0.00,VWS V13.01,2013-07-28 16:20:00,
2013-07-28 11:21:00,83.4,70.4,17.72,WNW,291,6.3,8.1,65,0.00,,SKC,0.00,VWS V13.01,2013-07-28 16:21:00,
2013-07-28 11:22:00,83.6,70.6,17.72,West,266,4.0,6.3,65,0.00,,SKC,0.00,VWS V13.01,2013-07-28 16:22:00,
2013-07-28 11:23:00,83.6,70.6,17.72,WSW,256,3.1,4.0,65,0.00,,SKC,0.00,VWS V13.01,2013-07-28 16:23:00,
2013-07-28 11:24:00,83.6,70.6,17.72,NNW,330,5.4,5.4,65,0.00,,SKC,0.00,VWS V13.01,2013-07-28 16:24:00,
2013-07-28 11:25:00,83.6,70.6,17.72,NW,305,5.8,6.3,65,0.00,,SKC,0.00,VWS V13.01,2013-07-28 16:25:00,
2013-07-28 11:26:00,83.8,70.8,17.72,NW,318,8.7,8.7,65,0.00,,SKC,0.00,VWS V13.01,2013-07-28 16:26:00,
2013-07-28 11:27:00,84.0,70.9,17.72,WNW,300,4.0,10.1,65,0.00,,SKC,0.00,VWS V13.01,2013-07-28 16:27:00,
2013-07-28 11:28:00,84.1,69.7,17.72,NNW,342,4.9,6.3,62,0.00,,SKC,0.00,VWS V13.01,2013-07-28 16:28:00,
2013-07-28 11:29:00,84.5,71.4,17.72,WNW,293,2.7,3.6,65,0.00,,SKC,0.00,VWS V13.01,2013-07-28 16:29:00,
2013-07-28 11:30:00,84.7,71.6,17.72,WSW,251,3.6,3.6,65,0.00,,SKC,0.00,VWS V13.01,2013-07-28 16:30:00,